Time,TemperatureF,DewpointF,PressureIn,WindDirection,WindDirectionDegrees,WindSpeedMPH,WindSpeedGustMPH,Humidity,HourlyPrecipIn,Conditions,Clouds,dailyrainin,SoftwareType,DateUTC
2013-08-08 00:00:00,74.3,71.5,29.09,NNW,342,9.0,10.0,91,0.00,,,0.00,WUHU216DAVISVP2,2013-08-08 04:00:00,
2013-08-08 00:01:00,74.3,71.5,29.09,NNW,339,7.0,10.0,91,0.00,,,0.00,WUHU216DAVISVP2,2013-08-08 04:01:00,
2013-08-08 00:06:00,73.7,70.9,29.09,North,4,8.0,10.0,91,0.00,,,0.00,WUHU216DAVISVP2,2013-08-08 04:06:00,
2013-08-08 00:11:00,73.1,70.3,29.09,North,4,10.0,10.0,91,0.00,,,0.00,WUHU216DAVISVP2,2013-08-08 04:11:00,
2013-08-08 00:16:00,72.8,70.3,29.09,NNE,12,2.0,11.0,92,0.00,,,0.00,WUHU216DAVISVP2,2013-08-08 04:16:00,
2013-08-08 00:17:00,72.8,70.3,29.09,NNE,12,5.0,11.0,92,0.00,,,0.00,WUHU216DAVISVP2,2013-08-08 04:17:00,
2013-08-08 00:21:00,72.7,70.2,29.09,NNE,23,5.0,11.0,92,0.00,,,0.00,WUHU216DAVISVP2,2013-08-08 04:21:00,
2013-08-08 00:22:00,72.6,70.1,29.09,NNE,20,7.0,11.0,92,0.00,,,0.00,WUHU216DAVISVP2,2013-08-08 04:22:00,
2013-08-08 00:23:00,72.6,70.1,29.09,North,4,6.0,11.0,92,0.00,,,0.00,WUHU216DAVISVP2,2013-08-08 04:23:00,
2013-08-08 00:26:00,72.4,69.9,29.10,North,359,6.0,11.0,92,0.00,,,0.00,WUHU216DAVISVP2,2013-08-08 04:26:00,
2013-08-08 00:27:00,72.4,69.9,29.10,North,359,6.0,11.0,92,0.00,,,0.00,WUHU216DAVISVP2,2013-08-08 04:27:00,
2013-08-08 00:28:00,72.4,69.9,29.10,NNW,348,8.0,11.0,92,0.00,,,0.00,WUHU216DAVISVP2,2013-08-08 04:28:00,
2013-08-08 00:32:00,72.2,69.7,29.10,NNE,13,6.0,10.0,92,0.00,,,0.00,WUHU216DAVISVP2,2013-08-08 04:32:00,
2013-08-08 00:33:00,72.1,69.6,29.10,North,9,6.0,10.0,92,0.00,,,0.00,WUHU216DAVISVP2,2013-08-08 04:33:00,
2013-08-08 00:37:00,72.0,69.5,29.10,North,359,7.0,10.0,92,0.00,,,0.00,WUHU216DAVISVP2,2013-08-08 04:37:00,
2013-08-08 00:38:00,71.9,69.4,29.10,North,9,4.0,10.0,92,0.00,,,0.00,WUHU216DAVISVP2,2013-08-08 04:38:00,
2013-08-08 00:42:00,71.8,69.3,29.10,NNE,16,6.0,10.0,92,0.00,,,0.00,WUHU216DAVISVP2,2013-08-08 04:42:00,
2013-08-08 00:43:00,71.8,69.3,29.10,NNE,25,8.0,10.0,92,0.00,,,0.00,WUHU216DAVISVP2,2013-08-08 04:43:00,
2013-08-08 00:47:00,71.7,69.2,29.10,NNE,25,5.0,10.0,92,0.00,,,0.00,WUHU216DAVISVP2,2013-08-08 04:47:00,
2013-08-08 00:48:00,71.7,69.2,29.10,NNE,30,6.0,10.0,92,0.00,,,0.00,WUHU216DAVISVP2,2013-08-08 04:48:00,
2013-08-08 00:52:00,71.7,69.2,29.10,NNE,21,7.0,9.0,92,0.00,,,0.00,WUHU216DAVISVP2,2013-08-08 04:52:00,
2013-08-08 00:53:00,71.6,69.1,29.10,NNE,20,5.0,9.0,92,0.00,,,0.00,WUHU216DAVISVP2,2013-08-08 04:53:00,
2013-08-08 00:58:00,71.6,69.1,29.10,NE,41,4.0,10.0,92,0.00,,,0.00,WUHU216DAVISVP2,2013-08-08 04:58:00,
2013-08-08 01:03:00,71.6,69.1,29.10,North,8,5.0,10.0,92,0.00,,,0.00,WUHU216DAVISVP2,2013-08-08 05:03:00,
2013-08-08 01:04:00,71.6,69.1,29.10,North,8,5.0,10.0,92,0.00,,,0.00,WUHU216DAVISVP2,2013-08-08 05:04:00,
2013-08-08 01:08:00,71.6,69.1,29.10,North,8,6.0,10.0,92,0.00,,,0.00,WUHU216DAVISVP2,2013-08-08 05:08:00,
2013-08-08 01:09:00,71.6,69.1,29.10,North,8,3.0,10.0,92,0.00,,,0.00,WUHU216DAVISVP2,2013-08-08 05:09:00,
2013-08-08 01:13:00,71.5,69.0,29.11,North,8,4.0,10.0,92,0.00,,,0.00,WUHU216DAVISVP2,2013-08-08 05:13:00,
2013-08-08 01:14:00,71.5,69.0,29.11,North,8,3.0,8.0,92,0.00,,,0.00,WUHU216DAVISVP2,2013-08-08 05:14:00,
2013-08-08 01:18:00,71.4,68.9,29.11,North,4,4.0,7.0,92,0.00,,,0.00,WUHU216DAVISVP2,2013-08-08 05:18:00,
2013-08-08 01:19:00,71.4,68.9,29.11,NNW,330,5.0,7.0,92,0.00,,,0.00,WUHU216DAVISVP2,2013-08-08 05:19:00,
2013-08-08 01:23:00,71.3,68.8,29.11,NNW,339,5.0,8.0,92,0.00,,,0.00,WUHU216DAVISVP2,2013-08-08 05:23:00,
2013-08-08 01:24:00,71.3,68.8,29.11,NNW,339,5.0,8.0,92,0.00,,,0.00,WUHU216DAVISVP2,2013-08-08 05:24:00,
2013-08-08 01:28:00,71.2,68.7,29.11,NNW,347,4.0,8.0,92,0.00,,,0.00,WUHU216DAVISVP2,2013-08-08 05:28:00,
2013-08-08 01:29:00,71.2,68.7,29.11,NNW,347,4.0,8.0,92,0.00,,,0.00,WUHU216DAVISVP2,2013-08-08 05:29:00,
2013-08-08 01:34:00,71.1,68.6,29.11,North,354,2.0,8.0,92,0.00,,,0.00,WUHU216DAVISVP2,2013-08-08 05:34:00,
2013-08-08 01:39:00,71.0,68.5,29.11,NNW,340,5.0,8.0,92,0.00,,,0.00,WUHU216DAVISVP2,2013-08-08 05:39:00,
2013-08-08 01:44:00,70.8,68.3,29.11,North,359,3.0,8.0,92,0.00,,,0.00,WUHU216DAVISVP2,2013-08-08 05:44:00,
2013-08-08 01:45:00,70.8,68.3,29.11,North,359,5.0,8.0,92,0.00,,,0.00,WUHU216DAVISVP2,2013-08-08 05:45:00,
2013-08-08 01:49:00,70.7,68.2,29.11,North,8,6.0,8.0,92,0.00,,,0.00,WUHU216DAVISVP2,2013-08-08 05:49:00,
2013-08-08 01:50:00,70.7,68.2,29.11,North,10,8.0,8.0,92,0.00,,,0.00,WUHU216DAVISVP2,2013-08-08 05:50:00,
2013-08-08 01:54:00,70.6,68.1,29.11,North,4,6.0,8.0,92,0.00,,,0.00,WUHU216DAVISVP2,2013-08-08 05:54:00,
2013-08-08 01:55:00,70.6,68.1,29.11,North,4,7.0,8.0,92,0.00,,,0.00,WUHU216DAVISVP2,2013-08-08 05:55:00,
2013-08-08 02:00:00,70.5,68.0,29.11,North,10,5.0,8.0,92,0.00,,,0.00,WUHU216DAVISVP2,2013-08-08 06:00:00,
2013-08-08 02:05:00,70.4,67.9,29.11,North,4,4.0,8.0,92,0.00,,,0.00,WUHU216DAVISVP2,2013-08-08 06:05:00,
2013-08-08 02:10:00,70.3,68.1,29.11,North,4,4.0,8.0,93,0.00,,,0.00,WUHU216DAVISVP2,2013-08-08 06:10:00,
2013-08-08 02:11:00,70.2,68.1,29.10,North,4,4.0,8.0,93,0.00,,,0.00,WUHU216DAVISVP2,2013-08-08 06:11:00,
2013-08-08 02:15:00,70.1,68.0,29.11,North,4,5.0,8.0,93,0.00,,,0.00,WUHU216DAVISVP2,2013-08-08 06:15:00,
2013-08-08 02:16:00,70.1,68.0,29.11,North,8,4.0,8.0,93,0.00,,,0.00,WUHU216DAVISVP2,2013-08-08 06:16:00,
2013-08-08 02:20:00,70.1,68.0,29.11,NNE,13,5.0,7.0,93,0.00,,,0.00,WUHU216DAVISVP2,2013-08-08 06:20:00,
2013-08-08 02:21:00,70.0,67.9,29.11,NNE,13,1.0,7.0,93,0.00,,,0.00,WUHU216DAVISVP2,2013-08-08 06:21:00,
2013-08-08 02:22:00,70.0,67.9,29.11,NNE,13,5.0,7.0,93,0.00,,,0.00,WUHU216DAVISVP2,2013-08-08 06:22:00,
2013-08-08 02:25:00,70.0,67.9,29.11,NNE,13,5.0,7.0,93,0.00,,,0.00,WUHU216DAVISVP2,2013-08-08 06:25:00,
2013-08-08 02:26:00,70.0,67.9,29.11,NNE,13,3.0,7.0,93,0.00,,,0.00,WUHU216DAVISVP2,2013-08-08 06:26:00,
2013-08-08 02:27:00,69.9,67.8,29.11,NNE,14,4.0,7.0,93,0.00,,,0.00,WUHU216DAVISVP2,2013-08-08 06:27:00,
2013-08-08 02:30:00,69.9,67.8,29.11,NNE,13,5.0,7.0,93,0.00,,,0.00,WUHU216DAVISVP2,2013-08-08 06:30:00,
2013-08-08 02:31:00,69.9,67.8,29.11,NNE,13,4.0,7.0,93,0.00,,,0.00,WUHU216DAVISVP2,2013-08-08 06:31:00,
2013-08-08 02:32:00,69.9,67.8,29.11,NNE,13,5.0,7.0,93,0.00,,,0.00,WUHU216DAVISVP2,2013-08-08 06:32:00,
2013-08-08 02:35:00,69.8,67.7,29.11,NNE,13,5.0,7.0,93,0.00,,,0.00,WUHU216DAVISVP2,2013-08-08 06:35:00,
2013-08-08 02:36:00,69.8,67.7,29.11,NNE,13,5.0,7.0,93,0.00,,,0.00,WUHU216DAVISVP2,2013-08-08 06:36:00,
2013-08-08 02:37:00,69.8,67.7,29.11,NNE,13,4.0,7.0,93,0.00,,,0.00,WUHU216DAVISVP2,2013-08-08 06:37:00,
2013-08-08 02:41:00,69.7,67.9,29.11,NNE,14,4.0,7.0,94,0.00,,,0.00,WUHU216DAVISVP2,2013-08-08 06:41:00,
2013-08-08 02:42:00,69.7,67.9,29.11,NNE,14,2.0,7.0,94,0.00,,,0.00,WUHU216DAVISVP2,2013-08-08 06:42:00,
2013-08-08 02:46:00,69.7,67.9,29.11,NNE,13,0.0,7.0,94,0.00,,,0.00,WUHU216DAVISVP2,2013-08-08 06:46:00,
2013-08-08 02:47:00,69.6,67.8,29.11,NNE,13,5.0,7.0,94,0.00,,,0.00,WUHU216DAVISVP2,2013-08-08 06:47:00,
2013-08-08 02:51:00,69.6,67.8,29.10,NNE,13,3.0,7.0,94,0.00,,,0.00,WUHU216DAVISVP2,2013-08-08 06:51:00,
2013-08-08 02:52:00,69.6,67.8,29.10,NNE,13,4.0,6.0,94,0.00,,,0.00,WUHU216DAVISVP2,2013-08-08 06:52:00,
2013-08-08 02:56:00,69.6,67.8,29.10,NNE,13,4.0,6.0,94,0.00,,,0.00,WUHU216DAVISVP2,2013-08-08 06:56:00,
2013-08-08 02:57:00,69.6,67.8,29.10,NNE,13,4.0,6.0,94,0.00,,,0.00,WUHU216DAVISVP2,2013-08-08 06:57:00,
2013-08-08 02:58:00,69.6,67.8,29.10,NNE,14,5.0,6.0,94,0.00,,,0.00,WUHU216DAVISVP2,2013-08-08 06:58:00,
2013-08-08 03:01:00,69.6,67.8,29.10,NNE,13,5.0,6.0,94,0.00,,,0.00,WUHU216DAVISVP2,2013-08-08 07:01:00,
2013-08-08 03:02:00,69.6,67.8,29.10,NNE,13,4.0,6.0,94,0.00,,,0.00,WUHU216DAVISVP2,2013-08-08 07:02:00,
2013-08-08 03:03:00,69.6,67.8,29.10,NNE,13,5.0,6.0,94,0.00,,,0.00,WUHU216DAVISVP2,2013-08-08 07:03:00,
2013-08-08 03:06:00,69.6,67.8,29.10,NNE,13,4.0,7.0,94,0.00,,,0.00,WUHU216DAVISVP2,2013-08-08 07:06:00,
2013-08-08 03:07:00,69.6,67.8,29.10,NNE,13,1.0,7.0,94,0.00,,,0.00,WUHU216DAVISVP2,2013-08-08 07:07:00,
2013-08-08 03:08:00,69.6,67.8,29.10,NNE,14,1.0,7.0,94,0.00,,,0.00,WUHU216DAVISVP2,2013-08-08 07:08:00,
2013-08-08 03:11:00,69.5,67.7,29.10,NNE,13,2.0,7.0,94,0.00,,,0.00,WUHU216DAVISVP2,2013-08-08 07:11:00,
2013-08-08 03:12:00,69.5,67.7,29.10,NNE,14,1.0,7.0,94,0.00,,,0.00,WUHU216DAVISVP2,2013-08-08 07:12:00,
2013-08-08 03:13:00,69.5,67.7,29.10,NNE,13,2.0,7.0,94,0.00,,,0.00,WUHU216DAVISVP2,2013-08-08 07:13:00,
2013-08-08 03:17:00,69.5,67.7,29.10,NNE,13,2.0,7.0,94,0.00,,,0.00,WUHU216DAVISVP2,2013-08-08 07:17:00,
2013-08-08 03:18:00,69.5,67.7,29.10,NNE,13,0.0,7.0,94,0.00,,,0.00,WUHU216DAVISVP2,2013-08-08 07:18:00,
2013-08-08 03:22:00,69.4,67.6,29.10,NNE,13,1.0,7.0,94,0.00,,,0.00,WUHU216DAVISVP2,2013-08-08 07:22:00,
2013-08-08 03:23:00,69.4,67.6,29.10,NNE,14,0.0,6.0,94,0.00,,,0.00,WUHU216DAVISVP2,2013-08-08 07:23:00,
2013-08-08 03:27:00,69.4,67.6,29.10,NNE,13,0.0,5.0,94,0.00,,,0.00,WUHU216DAVISVP2,2013-08-08 07:27:00,
2013-08-08 03:28:00,69.4,67.6,29.10,NNE,13,0.0,5.0,94,0.00,,,0.00,WUHU216DAVISVP2,2013-08-08 07:28:00,
2013-08-08 03:29:00,69.4,67.6,29.10,NNE,13,0.0,5.0,94,0.00,,,0.00,WUHU216DAVISVP2,2013-08-08 07:29:00,
2013-08-08 03:32:00,69.4,67.6,29.10,NNE,13,0.0,4.0,94,0.00,,,0.00,WUHU216DAVISVP2,2013-08-08 07:32:00,
2013-08-08 03:33:00,69.4,67.6,29.10,NNE,13,1.0,4.0,94,0.00,,,0.00,WUHU216DAVISVP2,2013-08-08 07:33:00,
2013-08-08 03:34:00,69.4,67.6,29.10,NNE,13,0.0,4.0,94,0.00,,,0.00,WUHU216DAVISVP2,2013-08-08 07:34:00,
2013-08-08 03:37:00,69.3,67.5,29.10,NNE,13,4.0,4.0,94,0.00,,,0.00,WUHU216DAVISVP2,2013-08-08 07:37:00,
2013-08-08 03:38:00,69.3,67.5,29.10,NNE,14,2.0,4.0,94,0.00,,,0.00,WUHU216DAVISVP2,2013-08-08 07:38:00,
2013-08-08 03:39:00,69.4,67.6,29.10,NNE,13,2.0,4.0,94,0.00,,,0.00,WUHU216DAVISVP2,2013-08-08 07:39:00,
2013-08-08 03:42:00,69.3,67.5,29.10,NNE,13,0.0,4.0,94,0.00,,,0.00,WUHU216DAVISVP2,2013-08-08 07:42:00,
2013-08-08 03:43:00,69.3,67.5,29.11,NNE,13,0.0,4.0,94,0.00,,,0.00,WUHU216DAVISVP2,2013-08-08 07:43:00,
2013-08-08 03:44:00,69.3,67.5,29.11,NNE,13,1.0,4.0,94,0.00,,,0.00,WUHU216DAVISVP2,2013-08-08 07:44:00,
2013-08-08 03:45:00,69.3,67.5,29.11,NNE,13,0.0,4.0,94,0.00,,,0.00,WUHU216DAVISVP2,2013-08-08 07:45:00,
2013-08-08 03:47:00,69.3,67.5,29.10,NNE,13,0.0,4.0,94,0.00,,,0.00,WUHU216DAVISVP2,2013-08-08 07:47:00,
2013-08-08 03:48:00,69.3,67.5,29.10,NNE,13,0.0,4.0,94,0.00,,,0.00,WUHU216DAVISVP2,2013-08-08 07:48:00,
2013-08-08 03:49:00,69.3,67.5,29.10,NNE,13,0.0,4.0,94,0.00,,,0.00,WUHU216DAVISVP2,2013-08-08 07:49:00,
2013-08-08 03:50:00,69.3,67.5,29.10,NNE,14,0.0,4.0,94,0.00,,,0.00,WUHU216DAVISVP2,2013-08-08 07:50:00,
2013-08-08 03:52:00,69.4,67.9,29.10,NNE,13,0.0,4.0,95,0.00,,,0.00,WUHU216DAVISVP2,2013-08-08 07:52:00,
2013-08-08 03:53:00,69.4,67.9,29.10,NNE,14,0.0,4.0,95,0.00,,,0.00,WUHU216DAVISVP2,2013-08-08 07:53:00,
2013-08-08 03:54:00,69.4,67.9,29.10,NNE,13,0.0,4.0,95,0.00,,,0.00,WUHU216DAVISVP2,2013-08-08 07:54:00,
2013-08-08 03:55:00,69.4,67.9,29.10,NNE,14,0.0,4.0,95,0.00,,,0.00,WUHU216DAVISVP2,2013-08-08 07:55:00,
2013-08-08 03:58:00,69.4,67.9,29.10,NNE,13,0.0,4.0,95,0.00,,,0.00,WUHU216DAVISVP2,2013-08-08 07:58:00,
2013-08-08 03:59:00,69.4,67.9,29.10,NNE,13,2.0,4.0,95,0.00,,,0.00,WUHU216DAVISVP2,2013-08-08 07:59:00,
2013-08-08 04:00:00,69.4,67.9,29.10,NNE,13,3.0,4.0,95,0.00,,,0.00,WUHU216DAVISVP2,2013-08-08 08:00:00,
2013-08-08 04:01:00,69.4,67.9,29.10,NNE,13,4.0,4.0,95,0.00,,,0.00,WUHU216DAVISVP2,2013-08-08 08:01:00,
2013-08-08 04:03:00,69.4,67.9,29.10,NNE,13,0.0,4.0,95,0.00,,,0.00,WUHU216DAVISVP2,2013-08-08 08:03:00,
2013-08-08 04:04:00,69.5,68.0,29.10,NNE,13,1.0,4.0,95,0.00,,,0.00,WUHU216DAVISVP2,2013-08-08 08:04:00,
2013-08-08 04:05:00,69.5,68.0,29.10,NNE,13,2.0,4.0,95,0.00,,,0.00,WUHU216DAVISVP2,2013-08-08 08:05:00,
2013-08-08 04:06:00,69.5,68.0,29.10,NNE,14,2.0,4.0,95,0.00,,,0.00,WUHU216DAVISVP2,2013-08-08 08:06:00,
2013-08-08 04:08:00,69.5,68.0,29.11,NNE,13,1.0,4.0,95,0.00,,,0.00,WUHU216DAVISVP2,2013-08-08 08:08:00,
2013-08-08 04:10:00,69.5,68.0,29.11,NNE,13,0.0,4.0,95,0.00,,,0.00,WUHU216DAVISVP2,2013-08-08 08:10:00,
2013-08-08 04:11:00,69.5,68.0,29.11,NNE,13,0.0,4.0,95,0.00,,,0.00,WUHU216DAVISVP2,2013-08-08 08:11:00,
2013-08-08 04:13:00,69.5,68.0,29.11,NNE,14,0.0,4.0,95,0.00,,,0.00,WUHU216DAVISVP2,2013-08-08 08:13:00,
2013-08-08 04:15:00,69.5,68.0,29.11,NNE,13,0.0,4.0,95,0.00,,,0.00,WUHU216DAVISVP2,2013-08-08 08:15:00,
2013-08-08 04:16:00,69.5,68.0,29.11,NNE,13,0.0,4.0,95,0.00,,,0.00,WUHU216DAVISVP2,2013-08-08 08:16:00,
2013-08-08 04:19:00,69.5,68.0,29.10,NNE,13,0.0,4.0,95,0.00,,,0.00,WUHU216DAVISVP2,2013-08-08 08:19:00,
2013-08-08 04:20:00,69.5,68.0,29.10,NNE,13,0.0,4.0,95,0.00,,,0.00,WUHU216DAVISVP2,2013-08-08 08:20:00,
2013-08-08 04:21:00,69.5,68.0,29.10,NNE,13,0.0,4.0,95,0.00,,,0.00,WUHU216DAVISVP2,2013-08-08 08:21:00,
2013-08-08 04:24:00,69.5,68.0,29.10,NNE,13,0.0,2.0,95,0.00,,,0.00,WUHU216DAVISVP2,2013-08-08 08:24:00,
2013-08-08 04:25:00,69.6,68.1,29.11,NNE,13,0.0,2.0,95,0.00,,,0.00,WUHU216DAVISVP2,2013-08-08 08:25:00,
2013-08-08 04:26:00,69.6,68.1,29.11,NNE,13,0.0,2.0,95,0.00,,,0.00,WUHU216DAVISVP2,2013-08-08 08:26:00,
2013-08-08 04:29:00,69.6,68.1,29.11,NNE,14,0.0,2.0,95,0.00,,,0.00,WUHU216DAVISVP2,2013-08-08 08:29:00,
2013-08-08 04:30:00,69.6,68.1,29.11,NNE,14,0.0,2.0,95,0.00,,,0.00,WUHU216DAVISVP2,2013-08-08 08:30:00,
2013-08-08 04:31:00,69.6,68.1,29.11,NNE,13,2.0,2.0,95,0.00,,,0.00,WUHU216DAVISVP2,2013-08-08 08:31:00,
2013-08-08 04:32:00,69.6,68.1,29.11,NNE,13,2.0,3.0,95,0.00,,,0.00,WUHU216DAVISVP2,2013-08-08 08:32:00,
2013-08-08 04:34:00,69.6,68.1,29.10,NNE,13,1.0,4.0,95,0.00,,,0.00,WUHU216DAVISVP2,2013-08-08 08:34:00,
2013-08-08 04:36:00,69.6,68.1,29.10,NNE,14,0.0,4.0,95,0.00,,,0.00,WUHU216DAVISVP2,2013-08-08 08:36:00,
2013-08-08 04:37:00,69.6,68.1,29.10,NNE,13,0.0,4.0,95,0.00,,,0.00,WUHU216DAVISVP2,2013-08-08 08:37:00,
2013-08-08 04:39:00,69.6,68.1,29.11,NNE,13,0.0,4.0,95,0.00,,,0.00,WUHU216DAVISVP2,2013-08-08 08:39:00,
2013-08-08 04:41:00,69.6,68.1,29.11,NNE,14,0.0,4.0,95,0.00,,,0.00,WUHU216DAVISVP2,2013-08-08 08:41:00,
2013-08-08 04:42:00,69.6,68.1,29.11,NNE,13,0.0,4.0,95,0.00,,,0.00,WUHU216DAVISVP2,2013-08-08 08:42:00,
2013-08-08 04:45:00,69.7,68.2,29.11,NNE,13,1.0,4.0,95,0.00,,,0.00,WUHU216DAVISVP2,2013-08-08 08:45:00,
2013-08-08 04:46:00,69.7,68.2,29.11,NNE,13,0.0,4.0,95,0.00,,,0.00,WUHU216DAVISVP2,2013-08-08 08:46:00,
2013-08-08 04:47:00,69.7,68.2,29.11,NNE,13,0.0,4.0,95,0.00,,,0.00,WUHU216DAVISVP2,2013-08-08 08:47:00,
2013-08-08 04:50:00,69.7,68.2,29.11,NNE,13,2.0,4.0,95,0.00,,,0.00,WUHU216DAVISVP2,2013-08-08 08:50:00,
2013-08-08 04:51:00,69.7,68.2,29.11,NNE,14,2.0,4.0,95,0.00,,,0.00,WUHU216DAVISVP2,2013-08-08 08:51:00,
2013-08-08 04:52:00,69.7,68.2,29.11,NNE,14,2.0,4.0,95,0.00,,,0.00,WUHU216DAVISVP2,2013-08-08 08:52:00,
2013-08-08 04:55:00,69.7,68.2,29.11,NNE,13,4.0,4.0,95,0.00,,,0.00,WUHU216DAVISVP2,2013-08-08 08:55:00,
2013-08-08 04:56:00,69.7,68.2,29.11,NNE,14,4.0,5.0,95,0.00,,,0.00,WUHU216DAVISVP2,2013-08-08 08:56:00,
2013-08-08 04:57:00,69.7,68.2,29.11,NNE,13,5.0,5.0,95,0.00,,,0.00,WUHU216DAVISVP2,2013-08-08 08:57:00,
2013-08-08 04:58:00,69.7,68.2,29.10,NNE,13,5.0,5.0,95,0.00,,,0.00,WUHU216DAVISVP2,2013-08-08 08:58:00,
2013-08-08 05:00:00,69.7,68.2,29.10,NNE,13,6.0,6.0,95,0.00,,,0.00,WUHU216DAVISVP2,2013-08-08 09:00:00,
2013-08-08 05:01:00,69.7,68.2,29.10,NNE,13,5.0,7.0,95,0.00,,,0.00,WUHU216DAVISVP2,2013-08-08 09:01:00,
2013-08-08 05:02:00,69.7,68.2,29.11,NNE,13,5.0,7.0,95,0.00,,,0.00,WUHU216DAVISVP2,2013-08-08 09:02:00,
2013-08-08 05:03:00,69.7,68.2,29.11,NNE,13,6.0,7.0,95,0.00,,,0.00,WUHU216DAVISVP2,2013-08-08 09:03:00,
2013-08-08 05:06:00,69.6,68.1,29.10,NNE,14,5.0,7.0,95,0.00,,,0.00,WUHU216DAVISVP2,2013-08-08 09:06:00,
2013-08-08 05:07:00,69.6,68.1,29.10,NNE,13,5.0,7.0,95,0.00,,,0.00,WUHU216DAVISVP2,2013-08-08 09:07:00,
2013-08-08 05:08:00,69.6,68.1,29.10,NNE,13,6.0,7.0,95,0.00,,,0.00,WUHU216DAVISVP2,2013-08-08 09:08:00,
2013-08-08 05:11:00,69.6,68.1,29.11,NNE,14,4.0,7.0,95,0.00,,,0.00,WUHU216DAVISVP2,2013-08-08 09:11:00,
2013-08-08 05:12:00,69.6,68.1,29.11,NNE,13,5.0,7.0,95,0.00,,,0.00,WUHU216DAVISVP2,2013-08-08 09:12:00,
2013-08-08 05:13:00,69.5,68.0,29.11,NNE,13,5.0,7.0,95,0.00,,,0.00,WUHU216DAVISVP2,2013-08-08 09:13:00,
2013-08-08 05:16:00,69.5,68.0,29.11,NNE,13,5.0,7.0,95,0.00,,,0.00,WUHU216DAVISVP2,2013-08-08 09:16:00,
2013-08-08 05:17:00,69.5,68.0,29.11,NNE,13,4.0,7.0,95,0.00,,,0.00,WUHU216DAVISVP2,2013-08-08 09:17:00,
2013-08-08 05:18:00,69.5,68.0,29.11,NNE,13,1.0,7.0,95,0.00,,,0.00,WUHU216DAVISVP2,2013-08-08 09:18:00,
2013-08-08 05:19:00,69.4,67.9,29.11,NNE,13,0.0,7.0,95,0.00,,,0.00,WUHU216DAVISVP2,2013-08-08 09:19:00,
2013-08-08 05:21:00,69.4,67.9,29.11,NNE,13,3.0,6.0,95,0.00,,,0.00,WUHU216DAVISVP2,2013-08-08 09:21:00,
2013-08-08 05:23:00,69.4,67.9,29.11,NNE,13,0.0,6.0,95,0.00,,,0.00,WUHU216DAVISVP2,2013-08-08 09:23:00,
2013-08-08 05:24:00,69.4,67.9,29.11,NNE,13,1.0,6.0,95,0.00,,,0.00,WUHU216DAVISVP2,2013-08-08 09:24:00,
2013-08-08 05:26:00,69.3,67.8,29.11,NNE,14,2.0,6.0,95,0.00,,,0.00,WUHU216DAVISVP2,2013-08-08 09:26:00,
2013-08-08 05:28:00,69.3,67.8,29.11,NNE,13,0.0,6.0,95,0.00,,,0.00,WUHU216DAVISVP2,2013-08-08 09:28:00,
2013-08-08 05:29:00,69.3,67.8,29.11,NNE,13,0.0,6.0,95,0.00,,,0.00,WUHU216DAVISVP2,2013-08-08 09:29:00,
2013-08-08 05:31:00,69.3,67.8,29.11,NNE,14,0.0,6.0,95,0.00,,,0.00,WUHU216DAVISVP2,2013-08-08 09:31:00,
2013-08-08 05:33:00,69.3,67.8,29.11,NNE,14,1.0,6.0,95,0.00,,,0.00,WUHU216DAVISVP2,2013-08-08 09:33:00,
2013-08-08 05:34:00,69.3,67.8,29.11,NNE,13,0.0,6.0,95,0.00,,,0.00,WUHU216DAVISVP2,2013-08-08 09:34:00,
2013-08-08 05:36:00,69.2,67.7,29.11,NNE,14,1.0,5.0,95,0.00,,,0.00,WUHU216DAVISVP2,2013-08-08 09:36:00,
2013-08-08 05:38:00,69.2,67.7,29.11,NNE,14,4.0,5.0,95,0.00,,,0.00,WUHU216DAVISVP2,2013-08-08 09:38:00,
2013-08-08 05:39:00,69.2,67.7,29.11,NNE,14,2.0,4.0,95,0.00,,,0.00,WUHU216DAVISVP2,2013-08-08 09:39:00,
2013-08-08 05:41:00,69.2,67.7,29.11,NNE,13,2.0,4.0,95,0.00,,,0.00,WUHU216DAVISVP2,2013-08-08 09:41:00,
2013-08-08 05:43:00,69.1,67.6,29.11,NNE,13,2.0,4.0,95,0.00,,,0.00,WUHU216DAVISVP2,2013-08-08 09:43:00,
2013-08-08 05:44:00,69.1,67.6,29.11,NNE,13,2.0,4.0,95,0.00,,,0.00,WUHU216DAVISVP2,2013-08-08 09:44:00,
2013-08-08 05:45:00,69.1,67.6,29.11,NNE,14,0.0,4.0,95,0.00,,,0.00,WUHU216DAVISVP2,2013-08-08 09:45:00,
2013-08-08 05:46:00,69.1,67.6,29.11,NNE,13,0.0,4.0,95,0.00,,,0.00,WUHU216DAVISVP2,2013-08-08 09:46:00,
2013-08-08 05:49:00,69.0,67.5,29.11,NNE,13,0.0,4.0,95,0.00,,,0.00,WUHU216DAVISVP2,2013-08-08 09:49:00,
2013-08-08 05:50:00,69.0,67.5,29.11,NNE,13,0.0,4.0,95,0.00,,,0.00,WUHU216DAVISVP2,2013-08-08 09:50:00,
2013-08-08 05:51:00,69.0,67.5,29.11,NNE,13,0.0,4.0,95,0.00,,,0.00,WUHU216DAVISVP2,2013-08-08 09:51:00,
2013-08-08 05:54:00,69.0,67.5,29.11,NNE,13,1.0,4.0,95,0.00,,,0.00,WUHU216DAVISVP2,2013-08-08 09:54:00,
2013-08-08 05:55:00,69.0,67.5,29.11,NNE,14,0.0,4.0,95,0.00,,,0.00,WUHU216DAVISVP2,2013-08-08 09:55:00,
2013-08-08 05:56:00,69.0,67.5,29.11,NNE,13,2.0,4.0,95,0.00,,,0.00,WUHU216DAVISVP2,2013-08-08 09:56:00,
2013-08-08 05:59:00,68.9,67.4,29.11,NNE,14,1.0,4.0,95,0.00,,,0.00,WUHU216DAVISVP2,2013-08-08 09:59:00,
2013-08-08 06:00:00,68.8,67.3,29.11,NNE,13,0.0,4.0,95,0.00,,,0.00,WUHU216DAVISVP2,2013-08-08 10:00:00,
2013-08-08 06:02:00,68.8,67.3,29.11,NNE,14,1.0,4.0,95,0.00,,,0.00,WUHU216DAVISVP2,2013-08-08 10:02:00,
2013-08-08 06:04:00,68.8,67.3,29.11,NNE,13,4.0,5.0,95,0.00,,,0.00,WUHU216DAVISVP2,2013-08-08 10:04:00,
2013-08-08 06:05:00,68.8,67.3,29.11,NNE,14,4.0,5.0,95,0.00,,,0.00,WUHU216DAVISVP2,2013-08-08 10:05:00,
2013-08-08 06:07:00,68.7,67.2,29.11,NNE,13,5.0,6.0,95,0.00,,,0.00,WUHU216DAVISVP2,2013-08-08 10:07:00,
2013-08-08 06:09:00,68.6,67.1,29.11,NNE,13,5.0,6.0,95,0.00,,,0.00,WUHU216DAVISVP2,2013-08-08 10:09:00,
2013-08-08 06:10:00,68.6,67.1,29.11,NNE,13,5.0,6.0,95,0.00,,,0.00,WUHU216DAVISVP2,2013-08-08 10:10:00,
2013-08-08 06:12:00,68.6,67.1,29.11,NNE,14,5.0,6.0,95,0.00,,,0.00,WUHU216DAVISVP2,2013-08-08 10:12:00,
2013-08-08 06:14:00,68.5,67.0,29.11,NNE,13,1.0,6.0,95,0.00,,,0.00,WUHU216DAVISVP2,2013-08-08 10:14:00,
2013-08-08 06:15:00,68.5,67.0,29.11,NNE,13,4.0,6.0,95,0.00,,,0.00,WUHU216DAVISVP2,2013-08-08 10:15:00,
2013-08-08 06:16:00,68.5,67.0,29.11,NNE,13,5.0,7.0,95,0.00,,,0.00,WUHU216DAVISVP2,2013-08-08 10:16:00,
2013-08-08 06:17:00,68.5,67.0,29.11,NNE,14,0.0,7.0,95,0.00,,,0.00,WUHU216DAVISVP2,2013-08-08 10:17:00,
2013-08-08 06:20:00,68.5,67.0,29.11,NNE,14,2.0,7.0,95,0.00,,,0.00,WUHU216DAVISVP2,2013-08-08 10:20:00,
2013-08-08 06:21:00,68.5,67.0,29.11,NNE,13,3.0,7.0,95,0.00,,,0.00,WUHU216DAVISVP2,2013-08-08 10:21:00,
2013-08-08 06:22:00,68.4,66.9,29.10,NNE,13,2.0,7.0,95,0.00,,,0.00,WUHU216DAVISVP2,2013-08-08 10:22:00,
2013-08-08 06:25:00,68.4,66.9,29.10,NNE,14,4.0,7.0,95,0.00,,,0.00,WUHU216DAVISVP2,2013-08-08 10:25:00,
2013-08-08 06:26:00,68.4,66.9,29.10,NNE,14,5.0,7.0,95,0.00,,,0.00,WUHU216DAVISVP2,2013-08-08 10:26:00,
2013-08-08 06:27:00,68.3,66.8,29.10,NNE,14,5.0,7.0,95,0.00,,,0.00,WUHU216DAVISVP2,2013-08-08 10:27:00,
2013-08-08 06:30:00,68.3,66.8,29.10,NNE,13,5.0,7.0,95,0.00,,,0.00,WUHU216DAVISVP2,2013-08-08 10:30:00,
2013-08-08 06:31:00,68.3,66.8,29.10,NNE,13,4.0,7.0,95,0.00,,,0.00,WUHU216DAVISVP2,2013-08-08 10:31:00,
2013-08-08 06:33:00,68.2,66.7,29.10,NNE,13,3.0,7.0,95,0.00,,,0.00,WUHU216DAVISVP2,2013-08-08 10:33:00,
2013-08-08 06:36:00,68.2,66.7,29.10,NNE,14,1.0,6.0,95,0.00,,,0.00,WUHU216DAVISVP2,2013-08-08 10:36:00,
2013-08-08 06:38:00,68.2,66.7,29.10,NNE,13,4.0,6.0,95,0.00,,,0.00,WUHU216DAVISVP2,2013-08-08 10:38:00,
2013-08-08 06:41:00,68.1,66.6,29.10,NNE,13,3.0,6.0,95,0.00,,,0.00,WUHU216DAVISVP2,2013-08-08 10:41:00,
2013-08-08 06:42:00,68.1,66.6,29.10,NNE,13,2.0,6.0,95,0.00,,,0.00,WUHU216DAVISVP2,2013-08-08 10:42:00,
2013-08-08 06:43:00,68.1,66.6,29.10,NNE,14,2.0,6.0,95,0.00,,,0.00,WUHU216DAVISVP2,2013-08-08 10:43:00,
2013-08-08 06:46:00,68.1,66.6,29.10,NNE,13,4.0,6.0,95,0.00,,,0.00,WUHU216DAVISVP2,2013-08-08 10:46:00,
2013-08-08 06:47:00,68.1,66.6,29.10,ENE,77,4.0,6.0,95,0.00,,,0.00,WUHU216DAVISVP2,2013-08-08 10:47:00,
2013-08-08 06:48:00,68.1,66.6,29.10,ENE,77,3.0,6.0,95,0.00,,,0.00,WUHU216DAVISVP2,2013-08-08 10:48:00,
2013-08-08 06:51:00,68.1,66.6,29.10,ENE,76,1.0,6.0,95,0.00,,,0.00,WUHU216DAVISVP2,2013-08-08 10:51:00,
2013-08-08 06:52:00,68.1,66.6,29.10,ENE,76,0.0,6.0,95,0.00,,,0.00,WUHU216DAVISVP2,2013-08-08 10:52:00,
2013-08-08 06:54:00,68.1,66.6,29.10,ENE,77,2.0,6.0,95,0.00,,,0.00,WUHU216DAVISVP2,2013-08-08 10:54:00,
2013-08-08 06:56:00,68.1,66.6,29.10,ENE,77,0.0,5.0,95,0.00,,,0.00,WUHU216DAVISVP2,2013-08-08 10:56:00,
2013-08-08 06:57:00,68.1,66.6,29.10,ENE,77,1.0,5.0,95,0.00,,,0.00,WUHU216DAVISVP2,2013-08-08 10:57:00,
2013-08-08 06:59:00,68.0,66.5,29.10,ENE,77,4.0,5.0,95,0.00,,,0.00,WUHU216DAVISVP2,2013-08-08 10:59:00,
2013-08-08 07:01:00,68.0,66.5,29.11,ENE,77,4.0,5.0,95,0.00,,,0.00,WUHU216DAVISVP2,2013-08-08 11:01:00,
2013-08-08 07:02:00,68.0,66.5,29.11,NE,56,4.0,7.0,95,0.00,,,0.00,WUHU216DAVISVP2,2013-08-08 11:02:00,
2013-08-08 07:05:00,68.0,66.5,29.11,ENE,57,1.0,7.0,95,0.00,,,0.00,WUHU216DAVISVP2,2013-08-08 11:05:00,
2013-08-08 07:06:00,68.0,66.5,29.11,ENE,57,1.0,7.0,95,0.00,,,0.00,WUHU216DAVISVP2,2013-08-08 11:06:00,
2013-08-08 07:07:00,68.0,66.5,29.11,ENE,57,2.0,7.0,95,0.00,,,0.00,WUHU216DAVISVP2,2013-08-08 11:07:00,
2013-08-08 07:08:00,68.0,66.5,29.11,ENE,57,2.0,7.0,95,0.00,,,0.00,WUHU216DAVISVP2,2013-08-08 11:08:00,
2013-08-08 07:10:00,68.0,66.5,29.11,ENE,57,5.0,7.0,95,0.00,,,0.00,WUHU216DAVISVP2,2013-08-08 11:10:00,
2013-08-08 07:11:00,68.0,66.5,29.11,ENE,57,2.0,7.0,95,0.00,,,0.00,WUHU216DAVISVP2,2013-08-08 11:11:00,
2013-08-08 07:12:00,68.0,66.5,29.11,ENE,57,2.0,7.0,95,0.00,,,0.00,WUHU216DAVISVP2,2013-08-08 11:12:00,
2013-08-08 07:13:00,68.0,66.5,29.11,ENE,57,4.0,7.0,95,0.00,,,0.00,WUHU216DAVISVP2,2013-08-08 11:13:00,
2013-08-08 07:16:00,68.0,66.5,29.11,ENE,57,2.0,7.0,95,0.00,,,0.00,WUHU216DAVISVP2,2013-08-08 11:16:00,
2013-08-08 07:17:00,68.0,66.5,29.11,ENE,57,4.0,7.0,95,0.00,,,0.00,WUHU216DAVISVP2,2013-08-08 11:17:00,
2013-08-08 07:18:00,68.0,66.5,29.11,ENE,57,3.0,7.0,95,0.00,,,0.00,WUHU216DAVISVP2,2013-08-08 11:18:00,
2013-08-08 07:21:00,68.1,66.6,29.12,ENE,57,2.0,5.0,95,0.00,,,0.00,WUHU216DAVISVP2,2013-08-08 11:21:00,
2013-08-08 07:22:00,68.1,66.6,29.12,ENE,57,2.0,5.0,95,0.00,,,0.00,WUHU216DAVISVP2,2013-08-08 11:22:00,
2013-08-08 07:23:00,68.1,66.6,29.12,ENE,57,5.0,5.0,95,0.00,,,0.00,WUHU216DAVISVP2,2013-08-08 11:23:00,
2013-08-08 07:26:00,68.1,66.6,29.12,ENE,57,4.0,6.0,95,0.00,,,0.00,WUHU216DAVISVP2,2013-08-08 11:26:00,
2013-08-08 07:27:00,68.1,66.6,29.12,ENE,57,5.0,6.0,95,0.00,,,0.00,WUHU216DAVISVP2,2013-08-08 11:27:00,
2013-08-08 07:28:00,68.1,66.6,29.11,ENE,57,5.0,6.0,95,0.00,,,0.00,WUHU216DAVISVP2,2013-08-08 11:28:00,
2013-08-08 07:29:00,68.1,66.6,29.11,ENE,57,1.0,6.0,95,0.00,,,0.00,WUHU216DAVISVP2,2013-08-08 11:29:00,
2013-08-08 07:32:00,68.2,66.7,29.11,ENE,57,2.0,6.0,95,0.00,,,0.00,WUHU216DAVISVP2,2013-08-08 11:32:00,
2013-08-08 07:33:00,68.2,66.7,29.11,NE,56,5.0,6.0,95,0.00,,,0.00,WUHU216DAVISVP2,2013-08-08 11:33:00,
2013-08-08 07:34:00,68.2,66.7,29.11,ENE,57,3.0,6.0,95,0.00,,,0.00,WUHU216DAVISVP2,2013-08-08 11:34:00,
2013-08-08 07:37:00,68.2,66.7,29.11,ENE,57,4.0,6.0,95,0.00,,,0.00,WUHU216DAVISVP2,2013-08-08 11:37:00,
2013-08-08 07:38:00,68.2,66.7,29.11,ENE,57,7.0,7.0,95,0.00,,,0.00,WUHU216DAVISVP2,2013-08-08 11:38:00,
2013-08-08 07:39:00,68.2,66.7,29.11,ENE,57,2.0,7.0,95,0.00,,,0.00,WUHU216DAVISVP2,2013-08-08 11:39:00,
2013-08-08 07:42:00,68.3,66.8,29.11,ENE,57,4.0,7.0,95,0.00,,,0.00,WUHU216DAVISVP2,2013-08-08 11:42:00,
2013-08-08 07:43:00,68.3,66.8,29.11,ENE,57,5.0,7.0,95,0.00,,,0.00,WUHU216DAVISVP2,2013-08-08 11:43:00,
2013-08-08 07:44:00,68.3,66.8,29.11,ENE,57,1.0,7.0,95,0.00,,,0.00,WUHU216DAVISVP2,2013-08-08 11:44:00,
2013-08-08 07:47:00,68.4,66.9,29.11,ENE,57,4.0,7.0,95,0.00,,,0.00,WUHU216DAVISVP2,2013-08-08 11:47:00,
2013-08-08 07:48:00,68.4,66.9,29.11,ENE,57,1.0,7.0,95,0.00,,,0.00,WUHU216DAVISVP2,2013-08-08 11:48:00,
2013-08-08 07:49:00,68.4,66.9,29.11,NE,53,5.0,7.0,95,0.00,,,0.00,WUHU216DAVISVP2,2013-08-08 11:49:00,
2013-08-08 07:52:00,68.5,67.0,29.11,NE,52,2.0,7.0,95,0.00,,,0.00,WUHU216DAVISVP2,2013-08-08 11:52:00,
2013-08-08 07:53:00,68.5,67.0,29.11,NE,52,4.0,7.0,95,0.00,,,0.00,WUHU216DAVISVP2,2013-08-08 11:53:00,
2013-08-08 07:54:00,68.5,67.0,29.11,NE,52,5.0,7.0,95,0.00,,,0.00,WUHU216DAVISVP2,2013-08-08 11:54:00,
2013-08-08 07:55:00,68.6,67.1,29.11,NE,52,3.0,7.0,95,0.00,,,0.00,WUHU216DAVISVP2,2013-08-08 11:55:00,
2013-08-08 07:58:00,68.6,66.8,29.11,NE,52,4.0,7.0,94,0.00,,,0.00,WUHU216DAVISVP2,2013-08-08 11:58:00,
2013-08-08 07:59:00,68.6,66.8,29.12,NE,50,4.0,7.0,94,0.00,,,0.00,WUHU216DAVISVP2,2013-08-08 11:59:00,
2013-08-08 08:00:00,68.7,66.9,29.12,ENE,68,4.0,7.0,94,0.00,,,0.00,WUHU216DAVISVP2,2013-08-08 12:00:00,
2013-08-08 08:03:00,68.8,67.0,29.12,ENE,68,6.0,8.0,94,0.00,,,0.00,WUHU216DAVISVP2,2013-08-08 12:03:00,
2013-08-08 08:04:00,68.8,67.0,29.12,NE,41,7.0,8.0,94,0.00,,,0.00,WUHU216DAVISVP2,2013-08-08 12:04:00,
2013-08-08 08:05:00,68.8,67.0,29.11,ENE,70,7.0,10.0,94,0.00,,,0.00,WUHU216DAVISVP2,2013-08-08 12:05:00,
2013-08-08 08:08:00,69.0,67.2,29.11,ENE,65,5.0,10.0,94,0.00,,,0.00,WUHU216DAVISVP2,2013-08-08 12:08:00,
2013-08-08 08:09:00,69.0,67.2,29.11,NE,52,4.0,10.0,94,0.00,,,0.00,WUHU216DAVISVP2,2013-08-08 12:09:00,
2013-08-08 08:10:00,69.0,67.2,29.11,ENE,60,4.0,10.0,94,0.00,,,0.00,WUHU216DAVISVP2,2013-08-08 12:10:00,
2013-08-08 08:13:00,69.1,67.0,29.11,ENE,60,6.0,10.0,93,0.00,,,0.00,WUHU216DAVISVP2,2013-08-08 12:13:00,
2013-08-08 08:14:00,69.2,67.1,29.11,ENE,68,6.0,10.0,93,0.00,,,0.00,WUHU216DAVISVP2,2013-08-08 12:14:00,
2013-08-08 08:15:00,69.2,67.1,29.11,ENE,68,7.0,10.0,93,0.00,,,0.00,WUHU216DAVISVP2,2013-08-08 12:15:00,
2013-08-08 08:18:00,69.4,67.3,29.11,ENE,73,5.0,10.0,93,0.00,,,0.00,WUHU216DAVISVP2,2013-08-08 12:18:00,
2013-08-08 08:19:00,69.4,67.3,29.11,NNE,23,10.0,10.0,93,0.00,,,0.00,WUHU216DAVISVP2,2013-08-08 12:19:00,
2013-08-08 08:20:00,69.4,67.3,29.11,NE,55,10.0,10.0,93,0.00,,,0.00,WUHU216DAVISVP2,2013-08-08 12:20:00,
2013-08-08 08:23:00,69.5,67.0,29.12,ENE,66,11.0,11.0,92,0.00,,,0.00,WUHU216DAVISVP2,2013-08-08 12:23:00,
2013-08-08 08:24:00,69.6,67.1,29.12,NE,52,7.0,11.0,92,0.00,,,0.00,WUHU216DAVISVP2,2013-08-08 12:24:00,
2013-08-08 08:25:00,69.6,67.1,29.12,ENE,62,6.0,11.0,92,0.00,,,0.00,WUHU216DAVISVP2,2013-08-08 12:25:00,
2013-08-08 08:29:00,69.8,67.0,29.12,NE,56,5.0,11.0,91,0.00,,,0.00,WUHU216DAVISVP2,2013-08-08 12:29:00,
2013-08-08 08:30:00,69.8,67.0,29.12,East,83,3.0,11.0,91,0.00,,,0.00,WUHU216DAVISVP2,2013-08-08 12:30:00,
2013-08-08 08:34:00,70.0,67.2,29.12,East,79,3.0,11.0,91,0.00,,,0.00,WUHU216DAVISVP2,2013-08-08 12:34:00,
2013-08-08 08:35:00,70.1,67.3,29.11,East,83,5.0,11.0,91,0.00,,,0.00,WUHU216DAVISVP2,2013-08-08 12:35:00,
2013-08-08 08:39:00,70.2,66.8,29.12,ENE,74,5.0,11.0,89,0.00,,,0.00,WUHU216DAVISVP2,2013-08-08 12:39:00,
2013-08-08 08:40:00,70.2,66.8,29.12,ENE,66,5.0,11.0,89,0.00,,,0.00,WUHU216DAVISVP2,2013-08-08 12:40:00,
2013-08-08 08:45:00,70.2,66.8,29.13,East,87,6.0,9.0,89,0.00,,,0.00,WUHU216DAVISVP2,2013-08-08 12:45:00,
2013-08-08 08:46:00,70.2,66.8,29.12,ENE,67,6.0,9.0,89,0.00,,,0.00,WUHU216DAVISVP2,2013-08-08 12:46:00,
2013-08-08 08:50:00,70.4,67.0,29.12,East,95,5.0,9.0,89,0.00,,,0.00,WUHU216DAVISVP2,2013-08-08 12:50:00,
2013-08-08 08:51:00,70.4,67.0,29.12,ENE,72,4.0,9.0,89,0.00,,,0.00,WUHU216DAVISVP2,2013-08-08 12:51:00,
2013-08-08 08:55:00,70.5,66.8,29.12,East,85,5.0,9.0,88,0.00,,,0.00,WUHU216DAVISVP2,2013-08-08 12:55:00,
2013-08-08 08:56:00,70.5,66.8,29.12,ENE,72,7.0,9.0,88,0.00,,,0.00,WUHU216DAVISVP2,2013-08-08 12:56:00,
2013-08-08 08:57:00,70.6,66.9,29.12,ENE,64,5.0,9.0,88,0.00,,,0.00,WUHU216DAVISVP2,2013-08-08 12:57:00,
2013-08-08 09:00:00,70.8,67.1,29.13,NE,55,8.0,10.0,88,0.00,,,0.00,WUHU216DAVISVP2,2013-08-08 13:00:00,
2013-08-08 09:01:00,70.8,67.1,29.13,East,92,10.0,11.0,88,0.00,,,0.00,WUHU216DAVISVP2,2013-08-08 13:01:00,
2013-08-08 09:02:00,70.8,66.7,29.13,East,79,7.0,11.0,87,0.00,,,0.00,WUHU216DAVISVP2,2013-08-08 13:02:00,
2013-08-08 09:05:00,70.8,66.7,29.13,ENE,74,6.0,11.0,87,0.00,,,0.00,WUHU216DAVISVP2,2013-08-08 13:05:00,
2013-08-08 09:06:00,70.8,66.7,29.13,ENE,72,6.0,11.0,87,0.00,,,0.00,WUHU216DAVISVP2,2013-08-08 13:06:00,
2013-08-08 09:07:00,70.8,66.7,29.13,ENE,75,8.0,11.0,87,0.00,,,0.00,WUHU216DAVISVP2,2013-08-08 13:07:00,
2013-08-08 09:11:00,70.8,66.7,29.12,East,82,3.0,11.0,87,0.00,,,0.00,WUHU216DAVISVP2,2013-08-08 13:11:00,
2013-08-08 09:12:00,70.8,66.7,29.12,ENE,76,7.0,11.0,87,0.00,,,0.00,WUHU216DAVISVP2,2013-08-08 13:12:00,
2013-08-08 09:16:00,71.0,66.9,29.13,East,85,7.0,11.0,87,0.00,,,0.00,WUHU216DAVISVP2,2013-08-08 13:16:00,
2013-08-08 09:17:00,71.0,66.9,29.13,ENE,73,6.0,11.0,87,0.00,,,0.00,WUHU216DAVISVP2,2013-08-08 13:17:00,
2013-08-08 09:21:00,71.3,67.2,29.13,ENE,68,3.0,11.0,87,0.00,,,0.00,WUHU216DAVISVP2,2013-08-08 13:21:00,
2013-08-08 09:22:00,71.5,67.4,29.13,NE,55,6.0,10.0,87,0.00,,,0.00,WUHU216DAVISVP2,2013-08-08 13:22:00,
2013-08-08 09:26:00,71.9,67.5,29.13,East,79,7.0,10.0,86,0.00,,,0.00,WUHU216DAVISVP2,2013-08-08 13:26:00,
2013-08-08 09:27:00,71.9,67.5,29.13,East,85,7.0,10.0,86,0.00,,,0.00,WUHU216DAVISVP2,2013-08-08 13:27:00,
2013-08-08 09:31:00,71.9,67.2,29.13,East,88,5.0,10.0,85,0.00,,,0.00,WUHU216DAVISVP2,2013-08-08 13:31:00,
2013-08-08 09:32:00,71.9,67.2,29.13,East,88,2.0,10.0,85,0.00,,,0.00,WUHU216DAVISVP2,2013-08-08 13:32:00,
2013-08-08 09:36:00,72.2,67.5,29.14,NE,56,5.0,10.0,85,0.00,,,0.00,WUHU216DAVISVP2,2013-08-08 13:36:00,
2013-08-08 09:37:00,72.2,67.5,29.14,ENE,78,5.0,10.0,85,0.00,,,0.00,WUHU216DAVISVP2,2013-08-08 13:37:00,
2013-08-08 09:38:00,72.3,67.6,29.14,NE,51,7.0,10.0,85,0.00,,,0.00,WUHU216DAVISVP2,2013-08-08 13:38:00,
2013-08-08 09:41:00,72.5,67.8,29.15,ENE,58,3.0,10.0,85,0.00,,,0.00,WUHU216DAVISVP2,2013-08-08 13:41:00,
2013-08-08 09:42:00,72.5,67.8,29.15,ENE,60,3.0,10.0,85,0.00,,,0.00,WUHU216DAVISVP2,2013-08-08 13:42:00,
2013-08-08 09:43:00,72.6,67.9,29.15,ENE,60,4.0,10.0,85,0.00,,,0.00,WUHU216DAVISVP2,2013-08-08 13:43:00,
2013-08-08 09:46:00,72.8,67.7,29.15,ENE,68,4.0,9.0,84,0.00,,,0.00,WUHU216DAVISVP2,2013-08-08 13:46:00,
2013-08-08 09:47:00,72.9,67.5,29.15,East,98,5.0,9.0,83,0.00,,,0.00,WUHU216DAVISVP2,2013-08-08 13:47:00,
2013-08-08 09:48:00,72.9,67.5,29.15,East,99,4.0,9.0,83,0.00,,,0.00,WUHU216DAVISVP2,2013-08-08 13:48:00,
2013-08-08 09:52:00,72.8,67.4,29.14,East,90,3.0,9.0,83,0.00,,,0.00,WUHU216DAVISVP2,2013-08-08 13:52:00,
2013-08-08 09:53:00,72.8,67.4,29.14,East,81,4.0,9.0,83,0.00,,,0.00,WUHU216DAVISVP2,2013-08-08 13:53:00,
2013-08-08 09:54:00,72.8,67.4,29.14,ENE,65,6.0,9.0,83,0.00,,,0.00,WUHU216DAVISVP2,2013-08-08 13:54:00,
2013-08-08 09:57:00,73.0,67.6,29.15,ENE,71,4.0,9.0,83,0.00,,,0.00,WUHU216DAVISVP2,2013-08-08 13:57:00,
2013-08-08 09:58:00,73.1,67.7,29.15,ENE,78,2.0,9.0,83,0.00,,,0.00,WUHU216DAVISVP2,2013-08-08 13:58:00,
2013-08-08 09:59:00,73.1,67.7,29.15,ENE,60,3.0,9.0,83,0.00,,,0.00,WUHU216DAVISVP2,2013-08-08 13:59:00,
2013-08-08 10:02:00,73.2,67.8,29.15,NE,56,5.0,8.0,83,0.00,,,0.00,WUHU216DAVISVP2,2013-08-08 14:02:00,
2013-08-08 10:03:00,73.3,67.9,29.16,NE,55,5.0,8.0,83,0.00,,,0.00,WUHU216DAVISVP2,2013-08-08 14:03:00,
2013-08-08 10:04:00,73.4,68.0,29.16,NE,56,5.0,8.0,83,0.00,,,0.00,WUHU216DAVISVP2,2013-08-08 14:04:00,
2013-08-08 10:07:00,73.5,67.7,29.15,NE,56,0.0,8.0,82,0.00,,,0.00,WUHU216DAVISVP2,2013-08-08 14:07:00,
2013-08-08 10:08:00,73.5,68.1,29.15,NE,56,0.0,8.0,83,0.00,,,0.00,WUHU216DAVISVP2,2013-08-08 14:08:00,
2013-08-08 10:09:00,73.6,68.2,29.15,NE,56,4.0,8.0,83,0.00,,,0.00,WUHU216DAVISVP2,2013-08-08 14:09:00,
2013-08-08 10:12:00,73.6,67.8,29.15,NE,54,8.0,8.0,82,0.00,,,0.00,WUHU216DAVISVP2,2013-08-08 14:12:00,
2013-08-08 10:13:00,73.6,67.8,29.16,ENE,62,5.0,8.0,82,0.00,,,0.00,WUHU216DAVISVP2,2013-08-08 14:13:00,
2013-08-08 10:14:00,73.6,67.8,29.16,ENE,62,5.0,8.0,82,0.00,,,0.00,WUHU216DAVISVP2,2013-08-08 14:14:00,
2013-08-08 10:15:00,73.6,67.8,29.16,ENE,62,4.0,8.0,82,0.00,,,0.00,WUHU216DAVISVP2,2013-08-08 14:15:00,
2013-08-08 10:17:00,73.6,67.8,29.16,ENE,62,0.0,8.0,82,0.00,,,0.00,WUHU216DAVISVP2,2013-08-08 14:17:00,
2013-08-08 10:18:00,73.5,67.7,29.16,ENE,63,4.0,8.0,82,0.00,,,0.00,WUHU216DAVISVP2,2013-08-08 14:18:00,
2013-08-08 10:19:00,73.5,67.7,29.16,ENE,64,5.0,8.0,82,0.00,,,0.00,WUHU216DAVISVP2,2013-08-08 14:19:00,
2013-08-08 10:20:00,73.5,67.7,29.16,ENE,64,5.0,8.0,82,0.00,,,0.00,WUHU216DAVISVP2,2013-08-08 14:20:00,
2013-08-08 10:22:00,73.4,67.6,29.16,ENE,72,6.0,8.0,82,0.00,,,0.00,WUHU216DAVISVP2,2013-08-08 14:22:00,
2013-08-08 10:23:00,73.3,67.5,29.15,ENE,73,5.0,8.0,82,0.00,,,0.00,WUHU216DAVISVP2,2013-08-08 14:23:00,
2013-08-08 10:25:00,73.3,67.5,29.15,ENE,76,6.0,8.0,82,0.00,,,0.00,WUHU216DAVISVP2,2013-08-08 14:25:00,
2013-08-08 10:27:00,73.2,67.8,29.16,ENE,70,5.0,8.0,83,0.00,,,0.00,WUHU216DAVISVP2,2013-08-08 14:27:00,
2013-08-08 10:29:00,73.1,67.7,29.16,ENE,66,3.0,8.0,83,0.00,,,0.00,WUHU216DAVISVP2,2013-08-08 14:29:00,
2013-08-08 10:30:00,73.1,67.7,29.16,East,82,4.0,8.0,83,0.00,,,0.00,WUHU216DAVISVP2,2013-08-08 14:30:00,
2013-08-08 10:32:00,73.0,67.9,29.16,East,89,6.0,8.0,84,0.00,,,0.00,WUHU216DAVISVP2,2013-08-08 14:32:00,
2013-08-08 10:34:00,72.9,67.8,29.16,East,82,4.0,8.0,84,0.00,,,0.00,WUHU216DAVISVP2,2013-08-08 14:34:00,
2013-08-08 10:35:00,72.9,67.8,29.16,East,79,4.0,8.0,84,0.00,,,0.00,WUHU216DAVISVP2,2013-08-08 14:35:00,
2013-08-08 10:36:00,72.9,67.8,29.16,East,91,4.0,8.0,84,0.00,,,0.00,WUHU216DAVISVP2,2013-08-08 14:36:00,
2013-08-08 10:37:00,72.8,67.7,29.15,East,95,4.0,8.0,84,0.00,,,0.00,WUHU216DAVISVP2,2013-08-08 14:37:00,
2013-08-08 10:39:00,72.8,67.7,29.16,East,85,4.0,8.0,84,0.00,,,0.00,WUHU216DAVISVP2,2013-08-08 14:39:00,
2013-08-08 10:40:00,72.8,67.7,29.15,ENE,76,5.0,8.0,84,0.00,,,0.00,WUHU216DAVISVP2,2013-08-08 14:40:00,
2013-08-08 10:41:00,72.8,67.7,29.15,ENE,75,3.0,8.0,84,0.00,,,0.00,WUHU216DAVISVP2,2013-08-08 14:41:00,
2013-08-08 10:43:00,72.9,67.8,29.15,ENE,75,2.0,7.0,84,0.00,,,0.00,WUHU216DAVISVP2,2013-08-08 14:43:00,
2013-08-08 10:44:00,72.9,67.8,29.15,East,89,5.0,7.0,84,0.00,,,0.00,WUHU216DAVISVP2,2013-08-08 14:44:00,
2013-08-08 10:45:00,73.0,67.9,29.15,East,85,5.0,7.0,84,0.00,,,0.00,WUHU216DAVISVP2,2013-08-08 14:45:00,
2013-08-08 10:46:00,73.0,67.9,29.15,East,92,4.0,7.0,84,0.00,,,0.00,WUHU216DAVISVP2,2013-08-08 14:46:00,
2013-08-08 10:48:00,73.0,67.9,29.15,SE,124,5.0,8.0,84,0.00,,,0.00,WUHU216DAVISVP2,2013-08-08 14:48:00,
2013-08-08 10:49:00,73.0,67.9,29.15,East,81,5.0,9.0,84,0.00,,,0.00,WUHU216DAVISVP2,2013-08-08 14:49:00,
2013-08-08 10:50:00,73.0,68.3,29.15,ESE,121,6.0,9.0,85,0.00,,,0.00,WUHU216DAVISVP2,2013-08-08 14:50:00,
2013-08-08 10:51:00,73.0,68.3,29.15,ESE,109,7.0,9.0,85,0.00,,,0.00,WUHU216DAVISVP2,2013-08-08 14:51:00,
2013-08-08 10:53:00,73.1,68.4,29.15,ESE,111,4.0,9.0,85,0.00,,,0.00,WUHU216DAVISVP2,2013-08-08 14:53:00,
2013-08-08 10:54:00,73.1,68.4,29.15,ESE,112,4.0,9.0,85,0.00,,,0.00,WUHU216DAVISVP2,2013-08-08 14:54:00,
2013-08-08 10:55:00,73.2,68.5,29.15,ESE,106,4.0,9.0,85,0.00,,,0.00,WUHU216DAVISVP2,2013-08-08 14:55:00,
2013-08-08 10:56:00,73.3,68.6,29.15,ESE,121,5.0,9.0,85,0.00,,,0.00,WUHU216DAVISVP2,2013-08-08 14:56:00,
2013-08-08 10:58:00,73.4,68.3,29.15,ENE,73,6.0,9.0,84,0.00,,,0.00,WUHU216DAVISVP2,2013-08-08 14:58:00,
2013-08-08 10:59:00,73.4,68.3,29.15,ENE,61,6.0,9.0,84,0.00,,,0.00,WUHU216DAVISVP2,2013-08-08 14:59:00,
2013-08-08 11:00:00,73.5,68.4,29.15,ESE,106,7.0,11.0,84,0.00,,,0.00,WUHU216DAVISVP2,2013-08-08 15:00:00,
2013-08-08 11:01:00,73.6,68.5,29.15,East,100,10.0,11.0,84,0.00,,,0.00,WUHU216DAVISVP2,2013-08-08 15:01:00,
2013-08-08 11:03:00,73.7,68.6,29.15,East,89,6.0,11.0,84,0.00,,,0.00,WUHU216DAVISVP2,2013-08-08 15:03:00,
2013-08-08 11:04:00,73.7,68.6,29.15,East,91,6.0,11.0,84,0.00,,,0.00,WUHU216DAVISVP2,2013-08-08 15:04:00,
2013-08-08 11:05:00,73.8,68.7,29.15,ESE,104,5.0,11.0,84,0.00,,,0.00,WUHU216DAVISVP2,2013-08-08 15:05:00,
2013-08-08 11:06:00,73.9,68.8,29.15,ENE,66,6.0,11.0,84,0.00,,,0.00,WUHU216DAVISVP2,2013-08-08 15:06:00,
2013-08-08 11:07:00,73.9,68.8,29.15,East,98,5.0,11.0,84,0.00,,,0.00,WUHU216DAVISVP2,2013-08-08 15:07:00,
2013-08-08 11:08:00,74.0,68.9,29.15,ENE,73,5.0,11.0,84,0.00,,,0.00,WUHU216DAVISVP2,2013-08-08 15:08:00,
2013-08-08 11:09:00,74.0,68.9,29.16,ENE,68,7.0,11.0,84,0.00,,,0.00,WUHU216DAVISVP2,2013-08-08 15:09:00,
2013-08-08 11:10:00,74.1,68.7,29.16,East,96,9.0,11.0,83,0.00,,,0.00,WUHU216DAVISVP2,2013-08-08 15:10:00,
2013-08-08 11:12:00,74.1,68.7,29.16,East,91,6.0,12.0,83,0.00,,,0.00,WUHU216DAVISVP2,2013-08-08 15:12:00,
2013-08-08 11:14:00,74.0,68.6,29.15,ESE,104,5.0,12.0,83,0.00,,,0.00,WUHU216DAVISVP2,2013-08-08 15:14:00,
2013-08-08 11:15:00,74.0,68.6,29.15,East,93,6.0,12.0,83,0.00,,,0.00,WUHU216DAVISVP2,2013-08-08 15:15:00,
2013-08-08 11:17:00,73.9,68.5,29.15,ESE,106,3.0,12.0,83,0.00,,,0.00,WUHU216DAVISVP2,2013-08-08 15:17:00,
2013-08-08 11:19:00,73.9,68.5,29.15,East,100,7.0,12.0,83,0.00,,,0.00,WUHU216DAVISVP2,2013-08-08 15:19:00,
2013-08-08 11:21:00,73.9,68.8,29.15,ESE,112,5.0,12.0,84,0.00,,,0.00,WUHU216DAVISVP2,2013-08-08 15:21:00,
2013-08-08 11:22:00,73.9,68.5,29.15,East,83,4.0,12.0,83,0.00,,,0.00,WUHU216DAVISVP2,2013-08-08 15:22:00,
2013-08-08 11:24:00,74.0,68.9,29.15,SE,141,1.0,12.0,84,0.00,,,0.00,WUHU216DAVISVP2,2013-08-08 15:24:00,
2013-08-08 11:25:00,74.0,68.9,29.15,SE,130,1.0,12.0,84,0.00,,,0.00,WUHU216DAVISVP2,2013-08-08 15:25:00,
2013-08-08 11:26:00,74.0,68.9,29.15,SSE,152,0.0,12.0,84,0.00,,,0.00,WUHU216DAVISVP2,2013-08-08 15:26:00,
2013-08-08 11:27:00,74.1,69.0,29.15,ENE,65,1.0,12.0,84,0.00,,,0.00,WUHU216DAVISVP2,2013-08-08 15:27:00,
2013-08-08 11:29:00,74.2,69.1,29.16,ENE,69,3.0,10.0,84,0.00,,,0.00,WUHU216DAVISVP2,2013-08-08 15:29:00,
2013-08-08 11:30:00,74.2,69.1,29.16,East,92,6.0,10.0,84,0.00,,,0.00,WUHU216DAVISVP2,2013-08-08 15:30:00,
2013-08-08 11:31:00,74.2,68.8,29.16,ESE,111,7.0,10.0,83,0.00,,,0.00,WUHU216DAVISVP2,2013-08-08 15:31:00,
2013-08-08 11:32:00,74.2,68.8,29.16,ESE,120,6.0,10.0,83,0.00,,,0.00,WUHU216DAVISVP2,2013-08-08 15:32:00,
2013-08-08 11:35:00,74.0,68.6,29.16,ESE,102,6.0,8.0,83,0.00,,,0.00,WUHU216DAVISVP2,2013-08-08 15:35:00,
2013-08-08 11:36:00,73.9,68.4,29.15,East,93,6.0,8.0,83,0.00,,,0.00,WUHU216DAVISVP2,2013-08-08 15:36:00,
2013-08-08 11:37:00,73.9,68.4,29.15,East,97,5.0,8.0,83,0.00,,,0.00,WUHU216DAVISVP2,2013-08-08 15:37:00,
2013-08-08 11:38:00,73.9,68.4,29.15,ESE,107,7.0,8.0,83,0.00,,,0.00,WUHU216DAVISVP2,2013-08-08 15:38:00,
2013-08-08 11:40:00,73.9,68.8,29.15,NE,37,4.0,8.0,84,0.00,,,0.00,WUHU216DAVISVP2,2013-08-08 15:40:00,
2013-08-08 11:41:00,73.9,68.8,29.15,ENE,69,7.0,8.0,84,0.00,,,0.00,WUHU216DAVISVP2,2013-08-08 15:41:00,
2013-08-08 11:43:00,73.9,68.8,29.15,East,80,6.0,8.0,84,0.00,,,0.00,WUHU216DAVISVP2,2013-08-08 15:43:00,
2013-08-08 11:45:00,73.9,68.8,29.15,ESE,118,4.0,9.0,84,0.00,,,0.00,WUHU216DAVISVP2,2013-08-08 15:45:00,
2013-08-08 11:46:00,73.9,68.8,29.15,ENE,66,5.0,9.0,84,0.00,,,0.00,WUHU216DAVISVP2,2013-08-08 15:46:00,
2013-08-08 11:48:00,74.0,68.9,29.15,ENE,72,6.0,9.0,84,0.00,,,0.00,WUHU216DAVISVP2,2013-08-08 15:48:00,
2013-08-08 11:50:00,74.0,68.6,29.15,East,92,5.0,9.0,83,0.00,,,0.00,WUHU216DAVISVP2,2013-08-08 15:50:00,
2013-08-08 11:51:00,74.0,68.6,29.16,East,81,4.0,9.0,83,0.00,,,0.00,WUHU216DAVISVP2,2013-08-08 15:51:00,
2013-08-08 11:53:00,74.1,69.0,29.16,East,89,4.0,9.0,84,0.00,,,0.00,WUHU216DAVISVP2,2013-08-08 15:53:00,
2013-08-08 11:55:00,74.1,68.7,29.16,East,97,5.0,9.0,83,0.00,,,0.00,WUHU216DAVISVP2,2013-08-08 15:55:00,
2013-08-08 11:56:00,74.1,68.7,29.16,ENE,76,7.0,9.0,83,0.00,,,0.00,WUHU216DAVISVP2,2013-08-08 15:56:00,
2013-08-08 11:57:00,74.1,68.7,29.16,ESE,111,5.0,9.0,83,0.00,,,0.00,WUHU216DAVISVP2,2013-08-08 15:57:00,
2013-08-08 11:58:00,74.0,68.5,29.16,East,94,6.0,9.0,83,0.00,,,0.00,WUHU216DAVISVP2,2013-08-08 15:58:00,
2013-08-08 11:59:00,74.0,68.5,29.16,SE,126,4.0,9.0,83,0.00,,,0.00,WUHU216DAVISVP2,2013-08-08 15:59:00,
2013-08-08 12:00:00,73.9,68.4,29.16,ESE,105,2.0,9.0,83,0.00,,,0.00,WUHU216DAVISVP2,2013-08-08 16:00:00,
2013-08-08 12:01:00,73.9,68.8,29.16,ENE,70,6.0,9.0,84,0.00,,,0.00,WUHU216DAVISVP2,2013-08-08 16:01:00,
2013-08-08 12:02:00,74.0,68.9,29.16,ENE,72,7.0,9.0,84,0.00,,,0.00,WUHU216DAVISVP2,2013-08-08 16:02:00,
2013-08-08 12:03:00,74.0,68.9,29.16,East,87,2.0,9.0,84,0.00,,,0.00,WUHU216DAVISVP2,2013-08-08 16:03:00,
2013-08-08 12:04:00,74.0,68.9,29.16,East,98,3.0,9.0,84,0.00,,,0.00,WUHU216DAVISVP2,2013-08-08 16:04:00,
2013-08-08 12:05:00,74.0,68.9,29.16,ENE,69,6.0,9.0,84,0.00,,,0.00,WUHU216DAVISVP2,2013-08-08 16:05:00,
2013-08-08 12:07:00,74.0,68.9,29.16,ESE,105,2.0,9.0,84,0.00,,,0.00,WUHU216DAVISVP2,2013-08-08 16:07:00,
2013-08-08 12:08:00,74.1,69.0,29.16,ESE,108,6.0,9.0,84,0.00,,,0.00,WUHU216DAVISVP2,2013-08-08 16:08:00,
2013-08-08 12:09:00,74.1,68.7,29.16,ESE,108,4.0,9.0,83,0.00,,,0.00,WUHU216DAVISVP2,2013-08-08 16:09:00,
2013-08-08 12:10:00,74.0,68.6,29.16,ESE,118,5.0,9.0,83,0.00,,,0.00,WUHU216DAVISVP2,2013-08-08 16:10:00,
2013-08-08 12:12:00,74.0,68.6,29.16,ESE,120,1.0,9.0,83,0.00,,,0.00,WUHU216DAVISVP2,2013-08-08 16:12:00,
2013-08-08 12:13:00,74.0,68.9,29.16,East,82,4.0,9.0,84,0.00,,,0.00,WUHU216DAVISVP2,2013-08-08 16:13:00,
2013-08-08 12:14:00,74.1,69.0,29.16,ENE,78,2.0,9.0,84,0.00,,,0.00,WUHU216DAVISVP2,2013-08-08 16:14:00,
2013-08-08 12:16:00,74.1,69.0,29.16,ESE,112,5.0,9.0,84,0.00,,,0.00,WUHU216DAVISVP2,2013-08-08 16:16:00,
2013-08-08 12:17:00,74.1,69.0,29.16,East,96,4.0,8.0,84,0.00,,,0.00,WUHU216DAVISVP2,2013-08-08 16:17:00,
2013-08-08 12:18:00,74.1,68.6,29.16,ESE,114,4.0,8.0,83,0.00,,,0.00,WUHU216DAVISVP2,2013-08-08 16:18:00,
2013-08-08 12:19:00,74.1,68.6,29.16,ESE,106,2.0,8.0,83,0.00,,,0.00,WUHU216DAVISVP2,2013-08-08 16:19:00,
2013-08-08 12:21:00,74.1,68.6,29.16,East,100,2.0,8.0,83,0.00,,,0.00,WUHU216DAVISVP2,2013-08-08 16:21:00,
2013-08-08 12:22:00,74.2,68.7,29.16,East,100,4.0,8.0,83,0.00,,,0.00,WUHU216DAVISVP2,2013-08-08 16:22:00,
2013-08-08 12:24:00,74.3,69.2,29.16,ENE,73,2.0,8.0,84,0.00,,,0.00,WUHU216DAVISVP2,2013-08-08 16:24:00,
2013-08-08 12:25:00,74.3,69.2,29.16,East,79,5.0,8.0,84,0.00,,,0.00,WUHU216DAVISVP2,2013-08-08 16:25:00,
2013-08-08 12:26:00,74.4,69.3,29.16,SSE,148,1.0,8.0,84,0.00,,,0.00,WUHU216DAVISVP2,2013-08-08 16:26:00,
2013-08-08 12:27:00,74.4,69.0,29.16,ESE,103,1.0,8.0,83,0.00,,,0.00,WUHU216DAVISVP2,2013-08-08 16:27:00,
2013-08-08 12:28:00,74.4,69.3,29.16,SE,126,4.0,7.0,84,0.00,,,0.00,WUHU216DAVISVP2,2013-08-08 16:28:00,
2013-08-08 12:29:00,74.5,69.4,29.16,ENE,66,5.0,7.0,84,0.00,,,0.00,WUHU216DAVISVP2,2013-08-08 16:29:00,
2013-08-08 12:30:00,74.5,69.1,29.16,ENE,66,0.0,7.0,83,0.00,,,0.00,WUHU216DAVISVP2,2013-08-08 16:30:00,
2013-08-08 12:32:00,74.6,69.2,29.16,ESE,102,6.0,7.0,83,0.00,,,0.00,WUHU216DAVISVP2,2013-08-08 16:32:00,
2013-08-08 12:33:00,74.6,69.2,29.16,East,96,2.0,7.0,83,0.00,,,0.00,WUHU216DAVISVP2,2013-08-08 16:33:00,
2013-08-08 12:34:00,74.6,69.2,29.16,ENE,73,2.0,7.0,83,0.00,,,0.00,WUHU216DAVISVP2,2013-08-08 16:34:00,
2013-08-08 12:35:00,74.6,69.2,29.16,ENE,73,1.0,7.0,83,0.00,,,0.00,WUHU216DAVISVP2,2013-08-08 16:35:00,
2013-08-08 12:37:00,74.7,69.6,29.16,East,81,3.0,7.0,84,0.00,,,0.00,WUHU216DAVISVP2,2013-08-08 16:37:00,
2013-08-08 12:38:00,74.7,69.2,29.16,ENE,63,4.0,7.0,83,0.00,,,0.00,WUHU216DAVISVP2,2013-08-08 16:38:00,
2013-08-08 12:39:00,74.7,69.2,29.16,ESE,104,5.0,7.0,83,0.00,,,0.00,WUHU216DAVISVP2,2013-08-08 16:39:00,
2013-08-08 12:40:00,74.7,69.2,29.16,ESE,115,5.0,7.0,83,0.00,,,0.00,WUHU216DAVISVP2,2013-08-08 16:40:00,
2013-08-08 12:42:00,74.6,69.1,29.16,ENE,77,3.0,8.0,83,0.00,,,0.00,WUHU216DAVISVP2,2013-08-08 16:42:00,
2013-08-08 12:43:00,74.6,68.7,29.16,ESE,103,4.0,8.0,82,0.00,,,0.00,WUHU216DAVISVP2,2013-08-08 16:43:00,
2013-08-08 12:44:00,74.7,68.9,29.15,ESE,106,6.0,8.0,82,0.00,,,0.00,WUHU216DAVISVP2,2013-08-08 16:44:00,
2013-08-08 12:46:00,74.7,69.3,29.15,ESE,113,5.0,8.0,83,0.00,,,0.00,WUHU216DAVISVP2,2013-08-08 16:46:00,
2013-08-08 12:47:00,74.7,68.9,29.15,ESE,108,5.0,8.0,82,0.00,,,0.00,WUHU216DAVISVP2,2013-08-08 16:47:00,
2013-08-08 12:48:00,74.8,69.4,29.16,NNE,33,1.0,8.0,83,0.00,,,0.00,WUHU216DAVISVP2,2013-08-08 16:48:00,
2013-08-08 12:50:00,74.9,69.4,29.16,ESE,111,2.0,8.0,83,0.00,,,0.00,WUHU216DAVISVP2,2013-08-08 16:50:00,
2013-08-08 12:51:00,75.0,69.2,29.16,East,85,4.0,8.0,82,0.00,,,0.00,WUHU216DAVISVP2,2013-08-08 16:51:00,
2013-08-08 12:52:00,75.1,69.3,29.15,East,85,0.0,8.0,82,0.00,,,0.00,WUHU216DAVISVP2,2013-08-08 16:52:00,
2013-08-08 12:53:00,75.2,69.4,29.15,ESE,114,5.0,8.0,82,0.00,,,0.00,WUHU216DAVISVP2,2013-08-08 16:53:00,
2013-08-08 12:55:00,75.2,69.1,29.15,ESE,110,3.0,8.0,81,0.00,,,0.00,WUHU216DAVISVP2,2013-08-08 16:55:00,
2013-08-08 12:56:00,75.2,69.1,29.15,East,87,1.0,8.0,81,0.00,,,0.00,WUHU216DAVISVP2,2013-08-08 16:56:00,
2013-08-08 12:57:00,75.2,69.1,29.15,East,93,6.0,8.0,81,0.00,,,0.00,WUHU216DAVISVP2,2013-08-08 16:57:00,
2013-08-08 12:59:00,75.2,69.1,29.15,East,80,4.0,8.0,81,0.00,,,0.00,WUHU216DAVISVP2,2013-08-08 16:59:00,
2013-08-08 13:00:00,75.2,69.1,29.15,East,81,2.0,8.0,81,0.00,,,0.00,WUHU216DAVISVP2,2013-08-08 17:00:00,
2013-08-08 13:01:00,75.2,69.1,29.15,East,80,0.0,8.0,81,0.00,,,0.00,WUHU216DAVISVP2,2013-08-08 17:01:00,
2013-08-08 13:02:00,75.2,69.4,29.16,East,81,2.0,8.0,82,0.00,,,0.00,WUHU216DAVISVP2,2013-08-08 17:02:00,
2013-08-08 13:04:00,75.2,69.1,29.15,East,81,4.0,8.0,81,0.00,,,0.00,WUHU216DAVISVP2,2013-08-08 17:04:00,
2013-08-08 13:05:00,75.2,69.1,29.15,East,81,2.0,8.0,81,0.00,,,0.00,WUHU216DAVISVP2,2013-08-08 17:05:00,
2013-08-08 13:07:00,75.2,69.1,29.15,East,80,4.0,8.0,81,0.00,,,0.00,WUHU216DAVISVP2,2013-08-08 17:07:00,
2013-08-08 13:08:00,75.2,69.1,29.15,ENE,65,3.0,8.0,81,0.00,,,0.00,WUHU216DAVISVP2,2013-08-08 17:08:00,
2013-08-08 13:10:00,75.3,69.2,29.15,ENE,57,6.0,8.0,81,0.00,,,0.00,WUHU216DAVISVP2,2013-08-08 17:10:00,
2013-08-08 13:12:00,75.3,69.2,29.15,ENE,60,6.0,8.0,81,0.00,,,0.00,WUHU216DAVISVP2,2013-08-08 17:12:00,
2013-08-08 13:13:00,75.4,69.2,29.15,ENE,61,5.0,8.0,81,0.00,,,0.00,WUHU216DAVISVP2,2013-08-08 17:13:00,
2013-08-08 13:15:00,75.5,69.3,29.14,ENE,61,5.0,8.0,81,0.00,,,0.00,WUHU216DAVISVP2,2013-08-08 17:15:00,
2013-08-08 13:17:00,75.5,69.3,29.14,ENE,77,5.0,8.0,81,0.00,,,0.00,WUHU216DAVISVP2,2013-08-08 17:17:00,
2013-08-08 13:18:00,75.6,69.4,29.14,East,85,4.0,8.0,81,0.00,,,0.00,WUHU216DAVISVP2,2013-08-08 17:18:00,
2013-08-08 13:20:00,75.6,69.4,29.14,ENE,73,4.0,8.0,81,0.00,,,0.00,WUHU216DAVISVP2,2013-08-08 17:20:00,
2013-08-08 13:21:00,75.6,69.4,29.14,ENE,73,6.0,8.0,81,0.00,,,0.00,WUHU216DAVISVP2,2013-08-08 17:21:00,
2013-08-08 13:22:00,75.6,69.4,29.14,ENE,67,4.0,8.0,81,0.00,,,0.00,WUHU216DAVISVP2,2013-08-08 17:22:00,
2013-08-08 13:23:00,75.5,69.3,29.14,ENE,75,4.0,8.0,81,0.00,,,0.00,WUHU216DAVISVP2,2013-08-08 17:23:00,
2013-08-08 13:24:00,75.5,69.3,29.14,ENE,76,4.0,8.0,81,0.00,,,0.00,WUHU216DAVISVP2,2013-08-08 17:24:00,
2013-08-08 13:25:00,75.5,69.3,29.14,East,97,5.0,8.0,81,0.00,,,0.00,WUHU216DAVISVP2,2013-08-08 17:25:00,
2013-08-08 13:26:00,75.4,69.2,29.15,East,93,1.0,8.0,81,0.00,,,0.00,WUHU216DAVISVP2,2013-08-08 17:26:00,
2013-08-08 13:27:00,75.3,69.2,29.15,East,93,2.0,8.0,81,0.00,,,0.00,WUHU216DAVISVP2,2013-08-08 17:27:00,
2013-08-08 13:28:00,75.3,69.2,29.15,ENE,59,4.0,8.0,81,0.00,,,0.00,WUHU216DAVISVP2,2013-08-08 17:28:00,
2013-08-08 13:29:00,75.3,69.2,29.15,East,97,5.0,8.0,81,0.00,,,0.00,WUHU216DAVISVP2,2013-08-08 17:29:00,
2013-08-08 13:30:00,75.2,69.1,29.15,ENE,62,7.0,8.0,81,0.00,,,0.00,WUHU216DAVISVP2,2013-08-08 17:30:00,
2013-08-08 13:31:00,75.1,69.3,29.14,ENE,64,6.0,8.0,82,0.00,,,0.00,WUHU216DAVISVP2,2013-08-08 17:31:00,
2013-08-08 13:32:00,75.1,69.0,29.14,ENE,64,4.0,8.0,81,0.00,,,0.00,WUHU216DAVISVP2,2013-08-08 17:32:00,
2013-08-08 13:34:00,75.1,69.0,29.14,East,86,3.0,8.0,81,0.00,,,0.00,WUHU216DAVISVP2,2013-08-08 17:34:00,
2013-08-08 13:35:00,75.0,69.2,29.14,East,87,2.0,8.0,82,0.00,,,0.00,WUHU216DAVISVP2,2013-08-08 17:35:00,
2013-08-08 13:36:00,75.0,69.2,29.14,East,81,4.0,8.0,82,0.00,,,0.00,WUHU216DAVISVP2,2013-08-08 17:36:00,
2013-08-08 13:37:00,75.0,69.2,29.14,East,83,0.0,8.0,82,0.00,,,0.00,WUHU216DAVISVP2,2013-08-08 17:37:00,
2013-08-08 13:39:00,75.0,69.2,29.14,ENE,75,4.0,8.0,82,0.00,,,0.00,WUHU216DAVISVP2,2013-08-08 17:39:00,
2013-08-08 13:40:00,74.9,69.1,29.14,ENE,73,6.0,8.0,82,0.00,,,0.00,WUHU216DAVISVP2,2013-08-08 17:40:00,
2013-08-08 13:42:00,74.9,69.1,29.14,East,88,5.0,8.0,82,0.00,,,0.00,WUHU216DAVISVP2,2013-08-08 17:42:00,
2013-08-08 13:43:00,74.9,69.1,29.14,East,91,6.0,8.0,82,0.00,,,0.00,WUHU216DAVISVP2,2013-08-08 17:43:00,
2013-08-08 13:44:00,74.8,69.0,29.14,East,81,7.0,8.0,82,0.00,,,0.00,WUHU216DAVISVP2,2013-08-08 17:44:00,
2013-08-08 13:45:00,74.8,69.0,29.14,East,85,4.0,8.0,82,0.00,,,0.00,WUHU216DAVISVP2,2013-08-08 17:45:00,
2013-08-08 13:46:00,74.8,69.0,29.14,ENE,66,1.0,8.0,82,0.00,,,0.00,WUHU216DAVISVP2,2013-08-08 17:46:00,
2013-08-08 13:47:00,74.8,69.4,29.15,ENE,71,5.0,8.0,83,0.00,,,0.00,WUHU216DAVISVP2,2013-08-08 17:47:00,
2013-08-08 13:48:00,74.8,69.4,29.15,ENE,73,5.0,8.0,83,0.00,,,0.00,WUHU216DAVISVP2,2013-08-08 17:48:00,
2013-08-08 13:50:00,74.8,69.4,29.14,ENE,61,7.0,8.0,83,0.00,,,0.00,WUHU216DAVISVP2,2013-08-08 17:50:00,
2013-08-08 13:51:00,74.8,69.4,29.15,ENE,57,5.0,8.0,83,0.00,,,0.00,WUHU216DAVISVP2,2013-08-08 17:51:00,
2013-08-08 13:52:00,74.8,69.4,29.14,ENE,62,4.0,8.0,83,0.00,,,0.00,WUHU216DAVISVP2,2013-08-08 17:52:00,
2013-08-08 13:53:00,74.8,69.4,29.14,ENE,70,5.0,8.0,83,0.00,,,0.00,WUHU216DAVISVP2,2013-08-08 17:53:00,
2013-08-08 13:55:00,74.9,69.4,29.14,NE,52,4.0,8.0,83,0.00,,,0.00,WUHU216DAVISVP2,2013-08-08 17:55:00,
2013-08-08 13:56:00,74.9,69.4,29.14,ENE,66,5.0,8.0,83,0.00,,,0.00,WUHU216DAVISVP2,2013-08-08 17:56:00,
2013-08-08 13:57:00,74.9,69.4,29.14,ENE,61,7.0,8.0,83,0.00,,,0.00,WUHU216DAVISVP2,2013-08-08 17:57:00,
2013-08-08 13:59:00,74.9,69.4,29.14,ENE,69,5.0,8.0,83,0.00,,,0.00,WUHU216DAVISVP2,2013-08-08 17:59:00,
2013-08-08 14:00:00,74.9,69.1,29.14,NE,54,1.0,8.0,82,0.00,,,0.00,WUHU216DAVISVP2,2013-08-08 18:00:00,
2013-08-08 14:01:00,74.9,69.4,29.14,NE,55,4.0,8.0,83,0.00,,,0.00,WUHU216DAVISVP2,2013-08-08 18:01:00,
2013-08-08 14:02:00,74.9,69.4,29.14,ESE,104,5.0,8.0,83,0.00,,,0.00,WUHU216DAVISVP2,2013-08-08 18:02:00,
2013-08-08 14:04:00,74.9,69.4,29.14,East,87,4.0,8.0,83,0.00,,,0.00,WUHU216DAVISVP2,2013-08-08 18:04:00,
2013-08-08 14:05:00,74.9,69.4,29.14,East,92,6.0,8.0,83,0.00,,,0.00,WUHU216DAVISVP2,2013-08-08 18:05:00,
2013-08-08 14:06:00,74.9,69.4,29.14,ENE,75,2.0,8.0,83,0.00,,,0.00,WUHU216DAVISVP2,2013-08-08 18:06:00,
2013-08-08 14:08:00,74.8,69.4,29.15,ENE,74,4.0,8.0,83,0.00,,,0.00,WUHU216DAVISVP2,2013-08-08 18:08:00,
2013-08-08 14:09:00,74.8,69.4,29.15,ENE,66,2.0,8.0,83,0.00,,,0.00,WUHU216DAVISVP2,2013-08-08 18:09:00,
2013-08-08 14:10:00,74.8,69.4,29.15,ENE,67,5.0,8.0,83,0.00,,,0.00,WUHU216DAVISVP2,2013-08-08 18:10:00,
2013-08-08 14:11:00,74.8,69.4,29.15,ENE,67,4.0,8.0,83,0.00,,,0.00,WUHU216DAVISVP2,2013-08-08 18:11:00,
2013-08-08 14:13:00,74.8,69.4,29.15,ENE,66,6.0,8.0,83,0.00,,,0.00,WUHU216DAVISVP2,2013-08-08 18:13:00,
2013-08-08 14:14:00,74.8,69.4,29.15,East,81,4.0,8.0,83,0.00,,,0.00,WUHU216DAVISVP2,2013-08-08 18:14:00,
2013-08-08 14:15:00,74.8,69.4,29.15,NE,56,6.0,8.0,83,0.00,,,0.00,WUHU216DAVISVP2,2013-08-08 18:15:00,
2013-08-08 14:16:00,74.8,69.4,29.15,ENE,66,2.0,8.0,83,0.00,,,0.00,WUHU216DAVISVP2,2013-08-08 18:16:00,
2013-08-08 14:17:00,74.7,69.3,29.15,NE,56,6.0,8.0,83,0.00,,,0.00,WUHU216DAVISVP2,2013-08-08 18:17:00,
2013-08-08 14:18:00,74.7,69.3,29.15,ENE,57,4.0,7.0,83,0.00,,,0.00,WUHU216DAVISVP2,2013-08-08 18:18:00,
2013-08-08 14:19:00,74.7,69.3,29.15,NE,43,4.0,7.0,83,0.00,,,0.00,WUHU216DAVISVP2,2013-08-08 18:19:00,
2013-08-08 14:20:00,74.7,69.3,29.15,ENE,64,7.0,8.0,83,0.00,,,0.00,WUHU216DAVISVP2,2013-08-08 18:20:00,
2013-08-08 14:21:00,74.6,69.2,29.15,ENE,66,7.0,8.0,83,0.00,,,0.00,WUHU216DAVISVP2,2013-08-08 18:21:00,
2013-08-08 14:22:00,74.6,69.2,29.15,ENE,57,6.0,8.0,83,0.00,,,0.00,WUHU216DAVISVP2,2013-08-08 18:22:00,
2013-08-08 14:23:00,74.6,69.2,29.14,ENE,59,5.0,8.0,83,0.00,,,0.00,WUHU216DAVISVP2,2013-08-08 18:23:00,
2013-08-08 14:24:00,74.6,69.5,29.14,NE,49,7.0,8.0,84,0.00,,,0.00,WUHU216DAVISVP2,2013-08-08 18:24:00,
2013-08-08 14:25:00,74.6,69.5,29.15,ENE,59,4.0,8.0,84,0.00,,,0.00,WUHU216DAVISVP2,2013-08-08 18:25:00,
2013-08-08 14:26:00,74.6,69.5,29.14,NE,45,6.0,8.0,84,0.00,,,0.00,WUHU216DAVISVP2,2013-08-08 18:26:00,
2013-08-08 14:27:00,74.6,69.5,29.14,NNE,33,5.0,8.0,84,0.00,,,0.00,WUHU216DAVISVP2,2013-08-08 18:27:00,
2013-08-08 14:28:00,74.5,69.3,29.14,ENE,71,6.0,8.0,84,0.00,,,0.00,WUHU216DAVISVP2,2013-08-08 18:28:00,
2013-08-08 14:30:00,74.4,69.2,29.14,NE,48,2.0,9.0,84,0.00,,,0.00,WUHU216DAVISVP2,2013-08-08 18:30:00,
2013-08-08 14:31:00,74.4,69.2,29.14,NE,51,4.0,9.0,84,0.00,,,0.00,WUHU216DAVISVP2,2013-08-08 18:31:00,
2013-08-08 14:33:00,74.4,69.6,29.15,NE,51,5.0,9.0,85,0.00,,,0.00,WUHU216DAVISVP2,2013-08-08 18:33:00,
2013-08-08 14:34:00,74.4,69.6,29.15,ENE,63,4.0,9.0,85,0.00,,,0.00,WUHU216DAVISVP2,2013-08-08 18:34:00,
2013-08-08 14:35:00,74.3,69.5,29.15,ENE,60,4.0,9.0,85,0.00,,,0.00,WUHU216DAVISVP2,2013-08-08 18:35:00,
2013-08-08 14:36:00,74.3,69.5,29.14,ENE,77,4.0,9.0,85,0.00,,,0.00,WUHU216DAVISVP2,2013-08-08 18:36:00,
2013-08-08 14:37:00,74.2,69.4,29.14,ENE,71,4.0,9.0,85,0.00,,,0.00,WUHU216DAVISVP2,2013-08-08 18:37:00,
2013-08-08 14:38:00,74.2,69.4,29.14,East,86,2.0,9.0,85,0.00,,,0.00,WUHU216DAVISVP2,2013-08-08 18:38:00,
2013-08-08 14:39:00,74.1,69.3,29.14,East,86,3.0,9.0,85,0.00,,,0.00,WUHU216DAVISVP2,2013-08-08 18:39:00,
2013-08-08 14:40:00,74.0,69.2,29.14,ENE,67,6.0,9.0,85,0.00,,,0.00,WUHU216DAVISVP2,2013-08-08 18:40:00,
2013-08-08 14:41:00,74.0,69.2,29.15,ENE,67,2.0,9.0,85,0.00,,,0.00,WUHU216DAVISVP2,2013-08-08 18:41:00,
2013-08-08 14:42:00,74.0,69.2,29.15,ENE,66,5.0,9.0,85,0.00,,,0.00,WUHU216DAVISVP2,2013-08-08 18:42:00,
2013-08-08 14:43:00,73.9,69.1,29.15,ENE,62,7.0,9.0,85,0.00,,,0.00,WUHU216DAVISVP2,2013-08-08 18:43:00,
2013-08-08 14:44:00,73.9,69.4,29.15,ENE,67,5.0,9.0,86,0.00,,,0.00,WUHU216DAVISVP2,2013-08-08 18:44:00,
2013-08-08 14:45:00,73.8,69.3,29.15,ENE,72,7.0,9.0,86,0.00,,,0.00,WUHU216DAVISVP2,2013-08-08 18:45:00,
2013-08-08 14:46:00,73.7,69.2,29.15,NE,52,4.0,9.0,86,0.00,,,0.00,WUHU216DAVISVP2,2013-08-08 18:46:00,
2013-08-08 14:47:00,73.6,69.2,29.14,ENE,71,4.0,9.0,86,0.00,,,0.00,WUHU216DAVISVP2,2013-08-08 18:47:00,
2013-08-08 14:48:00,73.7,69.2,29.14,ENE,71,4.0,9.0,86,0.00,,,0.00,WUHU216DAVISVP2,2013-08-08 18:48:00,
2013-08-08 14:49:00,73.6,69.5,29.14,ENE,71,3.0,9.0,87,0.00,,,0.00,WUHU216DAVISVP2,2013-08-08 18:49:00,
2013-08-08 14:51:00,73.6,69.5,29.14,ENE,76,4.0,9.0,87,0.00,,,0.00,WUHU216DAVISVP2,2013-08-08 18:51:00,
2013-08-08 14:52:00,73.5,69.4,29.14,ENE,73,5.0,9.0,87,0.00,,,0.00,WUHU216DAVISVP2,2013-08-08 18:52:00,
2013-08-08 14:54:00,73.4,69.3,29.14,ENE,74,4.0,9.0,87,0.00,,,0.00,WUHU216DAVISVP2,2013-08-08 18:54:00,
2013-08-08 14:56:00,73.3,69.5,29.14,ENE,63,5.0,9.0,88,0.00,,,0.00,WUHU216DAVISVP2,2013-08-08 18:56:00,
2013-08-08 14:57:00,73.3,69.5,29.14,ENE,66,5.0,9.0,88,0.00,,,0.00,WUHU216DAVISVP2,2013-08-08 18:57:00,
2013-08-08 14:59:00,73.2,69.1,29.14,NE,56,4.0,9.0,87,0.00,,,0.00,WUHU216DAVISVP2,2013-08-08 18:59:00,
2013-08-08 15:01:00,73.1,69.3,29.14,ENE,57,5.0,9.0,88,0.00,,,0.00,WUHU216DAVISVP2,2013-08-08 19:01:00,
2013-08-08 15:03:00,73.1,69.3,29.14,East,79,3.0,9.0,88,0.00,,,0.00,WUHU216DAVISVP2,2013-08-08 19:03:00,
2013-08-08 15:04:00,73.0,69.2,29.14,East,85,4.0,8.0,88,0.00,,,0.00,WUHU216DAVISVP2,2013-08-08 19:04:00,
2013-08-08 15:05:00,72.9,69.1,29.14,ENE,62,7.0,8.0,88,0.00,,,0.00,WUHU216DAVISVP2,2013-08-08 19:05:00,
2013-08-08 15:06:00,72.8,69.0,29.14,East,80,4.0,8.0,88,0.00,,,0.00,WUHU216DAVISVP2,2013-08-08 19:06:00,
2013-08-08 15:08:00,72.8,69.4,29.14,ENE,60,5.0,8.0,89,0.00,,,0.00,WUHU216DAVISVP2,2013-08-08 19:08:00,
2013-08-08 15:09:00,72.8,69.4,29.13,East,94,6.0,8.0,89,0.00,,,0.00,WUHU216DAVISVP2,2013-08-08 19:09:00,
2013-08-08 15:10:00,72.7,69.3,29.13,East,89,5.0,8.0,89,0.00,,,0.00,WUHU216DAVISVP2,2013-08-08 19:10:00,
2013-08-08 15:11:00,72.6,69.2,29.13,East,79,5.0,8.0,89,0.00,,,0.00,WUHU216DAVISVP2,2013-08-08 19:11:00,
2013-08-08 15:12:00,72.6,69.2,29.13,ENE,66,6.0,8.0,89,0.00,,,0.00,WUHU216DAVISVP2,2013-08-08 19:12:00,
2013-08-08 15:14:00,72.6,69.2,29.13,East,97,7.0,8.0,89,0.00,,,0.00,WUHU216DAVISVP2,2013-08-08 19:14:00,
2013-08-08 15:15:00,72.5,69.1,29.13,ENE,66,6.0,8.0,89,0.00,,,0.00,WUHU216DAVISVP2,2013-08-08 19:15:00,
2013-08-08 15:16:00,72.6,69.5,29.13,ENE,75,5.0,8.0,90,0.00,,,0.00,WUHU216DAVISVP2,2013-08-08 19:16:00,
2013-08-08 15:17:00,72.6,69.5,29.13,East,85,6.0,8.0,90,0.00,,,0.00,WUHU216DAVISVP2,2013-08-08 19:17:00,
2013-08-08 15:19:00,72.6,69.5,29.13,East,90,5.0,8.0,90,0.00,,,0.00,WUHU216DAVISVP2,2013-08-08 19:19:00,
2013-08-08 15:20:00,72.6,69.5,29.13,East,79,3.0,8.0,90,0.00,,,0.00,WUHU216DAVISVP2,2013-08-08 19:20:00,
2013-08-08 15:21:00,72.6,69.5,29.13,East,84,7.0,8.0,90,0.00,,,0.00,WUHU216DAVISVP2,2013-08-08 19:21:00,
2013-08-08 15:22:00,72.6,69.5,29.13,ESE,111,7.0,8.0,90,0.00,,,0.00,WUHU216DAVISVP2,2013-08-08 19:22:00,
2013-08-08 15:24:00,72.6,69.5,29.13,ENE,75,3.0,9.0,90,0.00,,,0.00,WUHU216DAVISVP2,2013-08-08 19:24:00,
2013-08-08 15:25:00,72.7,69.9,29.13,East,99,5.0,9.0,91,0.00,,,0.00,WUHU216DAVISVP2,2013-08-08 19:25:00,
2013-08-08 15:26:00,72.7,69.6,29.13,East,87,4.0,9.0,90,0.00,,,0.00,WUHU216DAVISVP2,2013-08-08 19:26:00,
2013-08-08 15:27:00,72.7,69.6,29.13,East,83,2.0,9.0,90,0.00,,,0.00,WUHU216DAVISVP2,2013-08-08 19:27:00,
2013-08-08 15:29:00,72.7,69.9,29.13,ENE,71,6.0,9.0,91,0.00,,,0.00,WUHU216DAVISVP2,2013-08-08 19:29:00,
2013-08-08 15:31:00,72.7,69.6,29.13,NE,56,6.0,9.0,90,0.00,,,0.00,WUHU216DAVISVP2,2013-08-08 19:31:00,
2013-08-08 15:32:00,72.7,69.6,29.13,East,94,7.0,9.0,90,0.00,,,0.00,WUHU216DAVISVP2,2013-08-08 19:32:00,
2013-08-08 15:35:00,72.7,69.3,29.13,East,88,4.0,9.0,89,0.00,,,0.00,WUHU216DAVISVP2,2013-08-08 19:35:00,
2013-08-08 15:36:00,72.6,69.2,29.13,ENE,58,6.0,9.0,89,0.00,,,0.00,WUHU216DAVISVP2,2013-08-08 19:36:00,
2013-08-08 15:37:00,72.7,69.6,29.13,ENE,68,7.0,9.0,90,0.00,,,0.00,WUHU216DAVISVP2,2013-08-08 19:37:00,
2013-08-08 15:38:00,72.7,69.6,29.13,ENE,69,5.0,9.0,90,0.00,,,0.00,WUHU216DAVISVP2,2013-08-08 19:38:00,
2013-08-08 15:40:00,72.9,69.8,29.13,East,82,5.0,9.0,90,0.00,,,0.00,WUHU216DAVISVP2,2013-08-08 19:40:00,
2013-08-08 15:41:00,72.9,69.8,29.13,East,82,2.0,9.0,90,0.00,,,0.00,WUHU216DAVISVP2,2013-08-08 19:41:00,
2013-08-08 15:42:00,73.0,69.9,29.13,ENE,60,7.0,9.0,90,0.00,,,0.00,WUHU216DAVISVP2,2013-08-08 19:42:00,
2013-08-08 15:43:00,73.0,69.9,29.13,ENE,73,5.0,9.0,90,0.00,,,0.00,WUHU216DAVISVP2,2013-08-08 19:43:00,
2013-08-08 15:45:00,73.0,69.6,29.13,NE,56,8.0,10.0,89,0.00,,,0.00,WUHU216DAVISVP2,2013-08-08 19:45:00,
2013-08-08 15:46:00,73.1,69.7,29.13,ENE,70,4.0,10.0,89,0.00,,,0.00,WUHU216DAVISVP2,2013-08-08 19:46:00,
2013-08-08 15:47:00,73.1,69.7,29.13,ENE,73,6.0,10.0,89,0.00,,,0.00,WUHU216DAVISVP2,2013-08-08 19:47:00,
2013-08-08 15:48:00,73.1,69.7,29.13,East,79,4.0,10.0,89,0.00,,,0.00,WUHU216DAVISVP2,2013-08-08 19:48:00,
2013-08-08 15:50:00,73.1,69.7,29.12,East,84,6.0,10.0,89,0.00,,,0.00,WUHU216DAVISVP2,2013-08-08 19:50:00,
2013-08-08 15:51:00,73.1,69.7,29.12,ENE,75,4.0,10.0,89,0.00,,,0.00,WUHU216DAVISVP2,2013-08-08 19:51:00,
2013-08-08 15:52:00,73.1,69.7,29.12,ENE,64,6.0,10.0,89,0.00,,,0.00,WUHU216DAVISVP2,2013-08-08 19:52:00,
2013-08-08 15:53:00,73.1,69.7,29.12,ENE,66,5.0,10.0,89,0.00,,,0.00,WUHU216DAVISVP2,2013-08-08 19:53:00,
2013-08-08 15:55:00,73.1,69.7,29.13,East,87,5.0,10.0,89,0.00,,,0.00,WUHU216DAVISVP2,2013-08-08 19:55:00,
2013-08-08 15:56:00,73.1,69.7,29.13,ENE,63,6.0,10.0,89,0.00,,,0.00,WUHU216DAVISVP2,2013-08-08 19:56:00,
2013-08-08 15:57:00,73.1,69.7,29.13,ENE,64,5.0,10.0,89,0.00,,,0.00,WUHU216DAVISVP2,2013-08-08 19:57:00,
2013-08-08 15:59:00,73.2,69.8,29.12,ESE,103,4.0,10.0,89,0.00,,,0.00,WUHU216DAVISVP2,2013-08-08 19:59:00,
2013-08-08 16:00:00,73.2,69.8,29.12,ENE,68,6.0,10.0,89,0.00,,,0.00,WUHU216DAVISVP2,2013-08-08 20:00:00,
2013-08-08 16:01:00,73.3,69.9,29.13,East,91,4.0,10.0,89,0.00,,,0.00,WUHU216DAVISVP2,2013-08-08 20:01:00,
2013-08-08 16:02:00,73.3,69.9,29.12,ENE,78,4.0,10.0,89,0.00,,,0.00,WUHU216DAVISVP2,2013-08-08 20:02:00,
2013-08-08 16:04:00,73.2,69.4,29.13,ENE,61,9.0,9.0,88,0.00,,,0.00,WUHU216DAVISVP2,2013-08-08 20:04:00,
2013-08-08 16:05:00,73.2,69.4,29.13,East,97,6.0,9.0,88,0.00,,,0.00,WUHU216DAVISVP2,2013-08-08 20:05:00,
2013-08-08 16:06:00,73.2,69.4,29.13,ESE,102,5.0,9.0,88,0.00,,,0.00,WUHU216DAVISVP2,2013-08-08 20:06:00,
2013-08-08 16:07:00,73.3,69.9,29.13,ENE,73,5.0,9.0,89,0.00,,,0.00,WUHU216DAVISVP2,2013-08-08 20:07:00,
2013-08-08 16:08:00,73.3,69.9,29.13,East,79,6.0,9.0,89,0.00,,,0.00,WUHU216DAVISVP2,2013-08-08 20:08:00,
2013-08-08 16:10:00,73.3,69.5,29.12,ENE,70,5.0,9.0,88,0.00,,,0.00,WUHU216DAVISVP2,2013-08-08 20:10:00,
2013-08-08 16:11:00,73.3,69.5,29.12,ENE,71,5.0,9.0,88,0.00,,,0.00,WUHU216DAVISVP2,2013-08-08 20:11:00,
2013-08-08 16:12:00,73.3,69.5,29.12,ENE,68,5.0,9.0,88,0.00,,,0.00,WUHU216DAVISVP2,2013-08-08 20:12:00,
2013-08-08 16:14:00,73.3,69.5,29.12,ENE,77,6.0,9.0,88,0.00,,,0.00,WUHU216DAVISVP2,2013-08-08 20:14:00,
2013-08-08 16:15:00,73.3,69.5,29.12,ENE,75,5.0,9.0,88,0.00,,,0.00,WUHU216DAVISVP2,2013-08-08 20:15:00,
2013-08-08 16:16:00,73.3,69.5,29.13,East,79,6.0,9.0,88,0.00,,,0.00,WUHU216DAVISVP2,2013-08-08 20:16:00,
2013-08-08 16:17:00,73.3,69.5,29.13,ENE,60,7.0,9.0,88,0.00,,,0.00,WUHU216DAVISVP2,2013-08-08 20:17:00,
2013-08-08 16:19:00,73.3,69.5,29.13,NE,48,5.0,9.0,88,0.00,,,0.00,WUHU216DAVISVP2,2013-08-08 20:19:00,
2013-08-08 16:20:00,73.4,69.6,29.13,ENE,75,4.0,9.0,88,0.00,,,0.00,WUHU216DAVISVP2,2013-08-08 20:20:00,
2013-08-08 16:21:00,73.4,69.6,29.13,ENE,60,6.0,9.0,88,0.00,,,0.00,WUHU216DAVISVP2,2013-08-08 20:21:00,
2013-08-08 16:22:00,73.4,69.6,29.13,East,87,5.0,9.0,88,0.00,,,0.00,WUHU216DAVISVP2,2013-08-08 20:22:00,
2013-08-08 16:24:00,73.4,69.6,29.13,ENE,60,6.0,9.0,88,0.00,,,0.00,WUHU216DAVISVP2,2013-08-08 20:24:00,
2013-08-08 16:25:00,73.4,69.6,29.13,NE,52,1.0,9.0,88,0.00,,,0.00,WUHU216DAVISVP2,2013-08-08 20:25:00,
2013-08-08 16:26:00,73.5,69.7,29.13,East,93,6.0,9.0,88,0.00,,,0.00,WUHU216DAVISVP2,2013-08-08 20:26:00,
2013-08-08 16:28:00,73.5,69.4,29.12,East,92,2.0,9.0,87,0.00,,,0.00,WUHU216DAVISVP2,2013-08-08 20:28:00,
2013-08-08 16:29:00,73.5,69.7,29.12,NE,50,6.0,9.0,88,0.00,,,0.00,WUHU216DAVISVP2,2013-08-08 20:29:00,
2013-08-08 16:30:00,73.6,69.8,29.12,ENE,69,6.0,9.0,88,0.00,,,0.00,WUHU216DAVISVP2,2013-08-08 20:30:00,
2013-08-08 16:31:00,73.7,69.9,29.12,East,87,5.0,9.0,88,0.00,,,0.00,WUHU216DAVISVP2,2013-08-08 20:31:00,
2013-08-08 16:33:00,73.6,69.5,29.12,East,79,5.0,9.0,87,0.00,,,0.00,WUHU216DAVISVP2,2013-08-08 20:33:00,
2013-08-08 16:34:00,73.6,69.5,29.12,ENE,68,5.0,9.0,87,0.00,,,0.00,WUHU216DAVISVP2,2013-08-08 20:34:00,
2013-08-08 16:35:00,73.7,69.6,29.12,ENE,65,5.0,9.0,87,0.00,,,0.00,WUHU216DAVISVP2,2013-08-08 20:35:00,
2013-08-08 16:36:00,73.7,69.9,29.12,ENE,62,1.0,9.0,88,0.00,,,0.00,WUHU216DAVISVP2,2013-08-08 20:36:00,
2013-08-08 16:37:00,73.8,69.7,29.12,NE,54,9.0,9.0,87,0.00,,,0.00,WUHU216DAVISVP2,2013-08-08 20:37:00,
2013-08-08 16:38:00,73.9,69.8,29.12,ENE,60,7.0,10.0,87,0.00,,,0.00,WUHU216DAVISVP2,2013-08-08 20:38:00,
2013-08-08 16:40:00,74.0,69.9,29.12,ENE,78,4.0,10.0,87,0.00,,,0.00,WUHU216DAVISVP2,2013-08-08 20:40:00,
2013-08-08 16:41:00,74.1,70.0,29.12,ENE,76,6.0,10.0,87,0.00,,,0.00,WUHU216DAVISVP2,2013-08-08 20:41:00,
2013-08-08 16:42:00,74.1,69.6,29.12,East,94,6.0,10.0,86,0.00,,,0.00,WUHU216DAVISVP2,2013-08-08 20:42:00,
2013-08-08 16:43:00,74.1,69.6,29.13,ENE,73,6.0,10.0,86,0.00,,,0.00,WUHU216DAVISVP2,2013-08-08 20:43:00,
2013-08-08 16:45:00,74.1,69.6,29.13,East,82,5.0,10.0,86,0.00,,,0.00,WUHU216DAVISVP2,2013-08-08 20:45:00,
2013-08-08 16:46:00,74.1,69.6,29.13,ENE,69,7.0,10.0,86,0.00,,,0.00,WUHU216DAVISVP2,2013-08-08 20:46:00,
2013-08-08 16:47:00,74.1,69.6,29.12,East,79,8.0,10.0,86,0.00,,,0.00,WUHU216DAVISVP2,2013-08-08 20:47:00,
2013-08-08 16:49:00,74.1,69.6,29.12,East,82,5.0,10.0,86,0.00,,,0.00,WUHU216DAVISVP2,2013-08-08 20:49:00,
2013-08-08 16:50:00,74.1,69.7,29.12,ENE,69,9.0,10.0,86,0.00,,,0.00,WUHU216DAVISVP2,2013-08-08 20:50:00,
2013-08-08 16:52:00,74.2,69.8,29.12,ESE,105,6.0,10.0,86,0.00,,,0.00,WUHU216DAVISVP2,2013-08-08 20:52:00,
2013-08-08 16:54:00,74.1,69.3,29.12,East,84,6.0,10.0,85,0.00,,,0.00,WUHU216DAVISVP2,2013-08-08 20:54:00,
2013-08-08 16:55:00,74.1,69.3,29.12,ENE,75,5.0,10.0,85,0.00,,,0.00,WUHU216DAVISVP2,2013-08-08 20:55:00,
2013-08-08 16:56:00,74.1,69.7,29.12,ENE,75,4.0,10.0,86,0.00,,,0.00,WUHU216DAVISVP2,2013-08-08 20:56:00,
2013-08-08 16:57:00,74.1,69.7,29.12,ENE,74,6.0,10.0,86,0.00,,,0.00,WUHU216DAVISVP2,2013-08-08 20:57:00,
2013-08-08 16:58:00,74.1,69.7,29.12,East,100,5.0,10.0,86,0.00,,,0.00,WUHU216DAVISVP2,2013-08-08 20:58:00,
2013-08-08 16:59:00,74.2,69.8,29.12,East,84,5.0,10.0,86,0.00,,,0.00,WUHU216DAVISVP2,2013-08-08 20:59:00,
2013-08-08 17:01:00,74.1,69.7,29.12,ENE,73,5.0,10.0,86,0.00,,,0.00,WUHU216DAVISVP2,2013-08-08 21:01:00,
2013-08-08 17:02:00,74.1,69.7,29.12,ENE,69,5.0,10.0,86,0.00,,,0.00,WUHU216DAVISVP2,2013-08-08 21:02:00,
2013-08-08 17:03:00,74.2,69.8,29.12,ENE,75,5.0,10.0,86,0.00,,,0.00,WUHU216DAVISVP2,2013-08-08 21:03:00,
2013-08-08 17:04:00,74.2,69.8,29.12,ENE,74,6.0,10.0,86,0.00,,,0.00,WUHU216DAVISVP2,2013-08-08 21:04:00,
2013-08-08 17:06:00,74.1,69.3,29.12,East,83,4.0,10.0,85,0.00,,,0.00,WUHU216DAVISVP2,2013-08-08 21:06:00,
2013-08-08 17:10:00,74.1,69.3,29.12,East,81,4.0,9.0,85,0.00,,,0.00,WUHU216DAVISVP2,2013-08-08 21:10:00,
2013-08-08 17:11:00,74.1,69.3,29.12,East,93,6.0,9.0,85,0.00,,,0.00,WUHU216DAVISVP2,2013-08-08 21:11:00,
2013-08-08 17:12:00,74.1,69.3,29.12,East,79,4.0,9.0,85,0.00,,,0.00,WUHU216DAVISVP2,2013-08-08 21:12:00,
2013-08-08 17:15:00,74.1,69.7,29.12,NE,51,4.0,9.0,86,0.00,,,0.00,WUHU216DAVISVP2,2013-08-08 21:15:00,
2013-08-08 17:16:00,74.1,69.7,29.12,ENE,66,6.0,9.0,86,0.00,,,0.00,WUHU216DAVISVP2,2013-08-08 21:16:00,
2013-08-08 17:17:00,74.1,69.7,29.12,ENE,66,2.0,9.0,86,0.00,,,0.00,WUHU216DAVISVP2,2013-08-08 21:17:00,
2013-08-08 17:20:00,74.1,69.3,29.13,ESE,108,4.0,9.0,85,0.00,,,0.00,WUHU216DAVISVP2,2013-08-08 21:20:00,
2013-08-08 17:22:00,74.1,69.7,29.12,East,87,3.0,9.0,86,0.00,,,0.00,WUHU216DAVISVP2,2013-08-08 21:22:00,
2013-08-08 17:23:00,74.1,69.7,29.12,East,83,3.0,9.0,86,0.00,,,0.00,WUHU216DAVISVP2,2013-08-08 21:23:00,
2013-08-08 17:26:00,74.1,69.7,29.12,East,84,2.0,9.0,86,0.00,,,0.00,WUHU216DAVISVP2,2013-08-08 21:26:00,
2013-08-08 17:27:00,74.2,69.8,29.12,ENE,77,5.0,8.0,86,0.00,,,0.00,WUHU216DAVISVP2,2013-08-08 21:27:00,
2013-08-08 17:28:00,74.2,69.8,29.12,ENE,73,1.0,8.0,86,0.00,,,0.00,WUHU216DAVISVP2,2013-08-08 21:28:00,
2013-08-08 17:31:00,74.2,70.1,29.12,ENE,73,3.0,8.0,87,0.00,,,0.00,WUHU216DAVISVP2,2013-08-08 21:31:00,
2013-08-08 17:32:00,74.3,70.2,29.12,ENE,60,5.0,8.0,87,0.00,,,0.00,WUHU216DAVISVP2,2013-08-08 21:32:00,
2013-08-08 17:33:00,74.3,70.2,29.12,ENE,72,5.0,8.0,87,0.00,,,0.00,WUHU216DAVISVP2,2013-08-08 21:33:00,
2013-08-08 17:34:00,74.3,69.9,29.12,ENE,60,8.0,8.0,86,0.00,,,0.00,WUHU216DAVISVP2,2013-08-08 21:34:00,
2013-08-08 17:37:00,74.3,69.9,29.12,ENE,67,6.0,9.0,86,0.00,,,0.00,WUHU216DAVISVP2,2013-08-08 21:37:00,
2013-08-08 17:39:00,74.3,69.9,29.12,NE,53,7.0,9.0,86,0.00,,,0.00,WUHU216DAVISVP2,2013-08-08 21:39:00,
2013-08-08 17:42:00,74.3,69.9,29.12,NE,39,9.0,10.0,86,0.00,,,0.00,WUHU216DAVISVP2,2013-08-08 21:42:00,
2013-08-08 17:44:00,74.3,69.9,29.12,ENE,64,5.0,10.0,86,0.00,,,0.00,WUHU216DAVISVP2,2013-08-08 21:44:00,
2013-08-08 17:47:00,74.2,69.8,29.12,East,79,5.0,10.0,86,0.00,,,0.00,WUHU216DAVISVP2,2013-08-08 21:47:00,
2013-08-08 17:49:00,74.2,69.8,29.12,ENE,76,2.0,10.0,86,0.00,,,0.00,WUHU216DAVISVP2,2013-08-08 21:49:00,
2013-08-08 17:53:00,74.0,69.9,29.12,East,83,4.0,10.0,87,0.00,,,0.00,WUHU216DAVISVP2,2013-08-08 21:53:00,
2013-08-08 17:55:00,73.9,69.8,29.12,East,85,5.0,10.0,87,0.00,,,0.00,WUHU216DAVISVP2,2013-08-08 21:55:00,
2013-08-08 17:58:00,73.7,69.6,29.12,ENE,69,5.0,10.0,87,0.00,,,0.00,WUHU216DAVISVP2,2013-08-08 21:58:00,
2013-08-08 17:59:00,73.7,69.6,29.12,ENE,57,7.0,10.0,87,0.00,,,0.00,WUHU216DAVISVP2,2013-08-08 21:59:00,
2013-08-08 18:00:00,73.6,69.5,29.12,East,79,2.0,10.0,87,0.00,,,0.00,WUHU216DAVISVP2,2013-08-08 22:00:00,
2013-08-08 18:01:00,73.6,69.5,29.12,East,79,2.0,10.0,87,0.00,,,0.00,WUHU216DAVISVP2,2013-08-08 22:01:00,
2013-08-08 18:03:00,73.6,69.5,29.12,ENE,76,3.0,10.0,87,0.00,,,0.00,WUHU216DAVISVP2,2013-08-08 22:03:00,
2013-08-08 18:04:00,73.6,69.5,29.13,East,93,2.0,10.0,87,0.00,,,0.00,WUHU216DAVISVP2,2013-08-08 22:04:00,
2013-08-08 18:06:00,73.6,69.5,29.13,ENE,68,4.0,10.0,87,0.00,,,0.00,WUHU216DAVISVP2,2013-08-08 22:06:00,
2013-08-08 18:09:00,73.6,69.5,29.12,ENE,68,6.0,10.0,87,0.00,,,0.00,WUHU216DAVISVP2,2013-08-08 22:09:00,
2013-08-08 18:11:00,73.6,69.5,29.12,East,81,5.0,10.0,87,0.00,,,0.00,WUHU216DAVISVP2,2013-08-08 22:11:00,
2013-08-08 18:15:00,73.6,69.5,29.12,East,84,5.0,10.0,87,0.00,,,0.00,WUHU216DAVISVP2,2013-08-08 22:15:00,
2013-08-08 18:17:00,73.6,69.5,29.12,ENE,75,5.0,8.0,87,0.00,,,0.00,WUHU216DAVISVP2,2013-08-08 22:17:00,
2013-08-08 18:18:00,73.6,69.5,29.12,ENE,75,4.0,8.0,87,0.00,,,0.00,WUHU216DAVISVP2,2013-08-08 22:18:00,
2013-08-08 18:20:00,73.6,69.5,29.12,East,81,5.0,8.0,87,0.00,,,0.00,WUHU216DAVISVP2,2013-08-08 22:20:00,
2013-08-08 18:23:00,73.7,69.6,29.13,East,93,4.0,8.0,87,0.00,,,0.00,WUHU216DAVISVP2,2013-08-08 22:23:00,
2013-08-08 18:24:00,73.7,69.6,29.13,ENE,69,5.0,7.0,87,0.00,,,0.00,WUHU216DAVISVP2,2013-08-08 22:24:00,
2013-08-08 18:25:00,73.7,69.6,29.13,East,89,1.0,7.0,87,0.00,,,0.00,WUHU216DAVISVP2,2013-08-08 22:25:00,
2013-08-08 18:26:00,73.7,69.6,29.13,East,90,2.0,7.0,87,0.00,,,0.00,WUHU216DAVISVP2,2013-08-08 22:26:00,
2013-08-08 18:28:00,73.7,69.6,29.12,ENE,68,6.0,7.0,87,0.00,,,0.00,WUHU216DAVISVP2,2013-08-08 22:28:00,
2013-08-08 18:29:00,73.7,69.6,29.12,East,87,2.0,7.0,87,0.00,,,0.00,WUHU216DAVISVP2,2013-08-08 22:29:00,
2013-08-08 18:30:00,73.7,69.6,29.12,East,83,4.0,7.0,87,0.00,,,0.00,WUHU216DAVISVP2,2013-08-08 22:30:00,
2013-08-08 18:31:00,73.8,69.7,29.12,East,101,4.0,7.0,87,0.00,,,0.00,WUHU216DAVISVP2,2013-08-08 22:31:00,
2013-08-08 18:34:00,73.8,69.4,29.12,ENE,59,6.0,8.0,86,0.00,,,0.00,WUHU216DAVISVP2,2013-08-08 22:34:00,
2013-08-08 18:36:00,73.8,69.4,29.12,NE,55,1.0,8.0,86,0.00,,,0.00,WUHU216DAVISVP2,2013-08-08 22:36:00,
2013-08-08 18:37:00,73.8,69.4,29.12,ENE,64,6.0,8.0,86,0.00,,,0.00,WUHU216DAVISVP2,2013-08-08 22:37:00,
2013-08-08 18:40:00,73.8,69.4,29.12,East,91,5.0,9.0,86,0.00,,,0.00,WUHU216DAVISVP2,2013-08-08 22:40:00,
2013-08-08 18:42:00,73.7,69.3,29.12,ENE,66,5.0,9.0,86,0.00,,,0.00,WUHU216DAVISVP2,2013-08-08 22:42:00,
2013-08-08 18:45:00,73.7,69.3,29.12,East,91,6.0,9.0,86,0.00,,,0.00,WUHU216DAVISVP2,2013-08-08 22:45:00,
2013-08-08 18:47:00,73.7,69.3,29.12,ENE,72,2.0,9.0,86,0.00,,,0.00,WUHU216DAVISVP2,2013-08-08 22:47:00,
2013-08-08 18:50:00,73.7,69.6,29.12,ESE,105,7.0,9.0,87,0.00,,,0.00,WUHU216DAVISVP2,2013-08-08 22:50:00,
2013-08-08 18:51:00,73.6,69.2,29.13,ENE,70,6.0,9.0,86,0.00,,,0.00,WUHU216DAVISVP2,2013-08-08 22:51:00,
2013-08-08 18:52:00,73.6,69.2,29.13,ENE,70,6.0,9.0,86,0.00,,,0.00,WUHU216DAVISVP2,2013-08-08 22:52:00,
2013-08-08 18:56:00,73.5,69.1,29.13,East,92,6.0,9.0,86,0.00,,,0.00,WUHU216DAVISVP2,2013-08-08 22:56:00,
2013-08-08 18:57:00,73.5,69.4,29.13,ENE,77,3.0,9.0,87,0.00,,,0.00,WUHU216DAVISVP2,2013-08-08 22:57:00,
2013-08-08 19:02:00,73.4,69.3,29.12,East,93,2.0,10.0,87,0.00,,,0.00,WUHU216DAVISVP2,2013-08-08 23:02:00,
2013-08-08 19:03:00,73.4,69.3,29.12,East,87,2.0,10.0,87,0.00,,,0.00,WUHU216DAVISVP2,2013-08-08 23:03:00,
2013-08-08 19:07:00,73.3,69.2,29.12,East,101,7.0,10.0,87,0.00,,,0.00,WUHU216DAVISVP2,2013-08-08 23:07:00,
2013-08-08 19:08:00,73.3,69.2,29.12,East,85,5.0,10.0,87,0.00,,,0.00,WUHU216DAVISVP2,2013-08-08 23:08:00,
2013-08-08 19:12:00,73.3,69.2,29.12,East,91,5.0,10.0,87,0.00,,,0.00,WUHU216DAVISVP2,2013-08-08 23:12:00,
2013-08-08 19:13:00,73.3,69.2,29.12,East,79,3.0,10.0,87,0.00,,,0.00,WUHU216DAVISVP2,2013-08-08 23:13:00,
2013-08-08 19:17:00,73.3,69.5,29.12,ENE,71,6.0,10.0,88,0.00,,,0.00,WUHU216DAVISVP2,2013-08-08 23:17:00,
2013-08-08 19:18:00,73.2,69.4,29.12,East,85,4.0,10.0,88,0.00,,,0.00,WUHU216DAVISVP2,2013-08-08 23:18:00,
2013-08-08 19:19:00,73.2,69.4,29.12,East,86,4.0,8.0,88,0.00,,,0.00,WUHU216DAVISVP2,2013-08-08 23:19:00,
2013-08-08 19:23:00,73.2,69.4,29.11,ENE,75,2.0,8.0,88,0.00,,,0.00,WUHU216DAVISVP2,2013-08-08 23:23:00,
2013-08-08 19:24:00,73.2,69.4,29.11,ENE,75,2.0,8.0,88,0.00,,,0.00,WUHU216DAVISVP2,2013-08-08 23:24:00,
2013-08-08 19:25:00,73.2,69.4,29.11,ENE,76,1.0,8.0,88,0.00,,,0.00,WUHU216DAVISVP2,2013-08-08 23:25:00,
2013-08-08 19:29:00,73.1,69.3,29.12,ENE,76,0.0,8.0,88,0.00,,,0.00,WUHU216DAVISVP2,2013-08-08 23:29:00,
2013-08-08 19:31:00,73.1,69.3,29.12,ESE,112,5.0,7.0,88,0.00,,,0.00,WUHU216DAVISVP2,2013-08-08 23:31:00,
2013-08-08 19:34:00,73.0,69.2,29.11,East,83,4.0,8.0,88,0.00,,,0.00,WUHU216DAVISVP2,2013-08-08 23:34:00,
2013-08-08 19:36:00,73.0,69.2,29.11,ESE,108,6.0,8.0,88,0.00,,,0.00,WUHU216DAVISVP2,2013-08-08 23:36:00,
2013-08-08 19:40:00,73.0,69.2,29.11,East,84,5.0,8.0,88,0.00,,,0.00,WUHU216DAVISVP2,2013-08-08 23:40:00,
2013-08-08 19:41:00,73.0,69.2,29.11,East,95,6.0,8.0,88,0.00,,,0.00,WUHU216DAVISVP2,2013-08-08 23:41:00,
2013-08-08 19:42:00,73.0,69.2,29.11,ESE,116,3.0,8.0,88,0.00,,,0.00,WUHU216DAVISVP2,2013-08-08 23:42:00,
2013-08-08 19:45:00,72.9,69.1,29.11,ENE,73,5.0,8.0,88,0.00,,,0.00,WUHU216DAVISVP2,2013-08-08 23:45:00,
2013-08-08 19:46:00,72.9,69.1,29.11,East,92,3.0,8.0,88,0.00,,,0.00,WUHU216DAVISVP2,2013-08-08 23:46:00,
2013-08-08 19:47:00,72.9,69.1,29.11,East,101,2.0,8.0,88,0.00,,,0.00,WUHU216DAVISVP2,2013-08-08 23:47:00,
2013-08-08 19:50:00,72.9,69.1,29.12,ESE,104,6.0,8.0,88,0.00,,,0.00,WUHU216DAVISVP2,2013-08-08 23:50:00,
2013-08-08 19:51:00,72.8,69.0,29.12,East,94,6.0,8.0,88,0.00,,,0.00,WUHU216DAVISVP2,2013-08-08 23:51:00,
2013-08-08 19:52:00,72.8,69.0,29.12,East,98,6.0,8.0,88,0.00,,,0.00,WUHU216DAVISVP2,2013-08-08 23:52:00,
2013-08-08 19:56:00,72.8,69.0,29.13,ESE,110,7.0,7.0,88,0.00,,,0.00,WUHU216DAVISVP2,2013-08-08 23:56:00,
2013-08-08 19:57:00,72.8,69.0,29.12,East,81,4.0,7.0,88,0.00,,,0.00,WUHU216DAVISVP2,2013-08-08 23:57:00,
2013-08-08 19:58:00,72.8,69.0,29.12,East,90,5.0,7.0,88,0.00,,,0.00,WUHU216DAVISVP2,2013-08-08 23:58:00,
2013-08-08 20:01:00,72.7,68.9,29.12,ESE,104,2.0,7.0,88,0.00,,,0.00,WUHU216DAVISVP2,2013-08-09 00:01:00,
2013-08-08 20:02:00,72.8,69.0,29.12,ESE,103,5.0,7.0,88,0.00,,,0.00,WUHU216DAVISVP2,2013-08-09 00:02:00,
2013-08-08 20:03:00,72.7,68.9,29.12,East,89,0.0,7.0,88,0.00,,,0.00,WUHU216DAVISVP2,2013-08-09 00:03:00,
2013-08-08 20:06:00,72.7,68.9,29.12,East,97,3.0,7.0,88,0.00,,,0.00,WUHU216DAVISVP2,2013-08-09 00:06:00,
2013-08-08 20:07:00,72.7,68.9,29.12,East,97,2.0,7.0,88,0.00,,,0.00,WUHU216DAVISVP2,2013-08-09 00:07:00,
2013-08-08 20:08:00,72.7,68.9,29.12,East,97,2.0,7.0,88,0.00,,,0.00,WUHU216DAVISVP2,2013-08-09 00:08:00,
2013-08-08 20:12:00,72.8,69.0,29.12,East,97,1.0,7.0,88,0.00,,,0.00,WUHU216DAVISVP2,2013-08-09 00:12:00,
2013-08-08 20:13:00,72.8,69.0,29.13,East,97,2.0,7.0,88,0.00,,,0.00,WUHU216DAVISVP2,2013-08-09 00:13:00,
2013-08-08 20:14:00,72.7,68.9,29.12,East,97,1.0,7.0,88,0.00,,,0.00,WUHU216DAVISVP2,2013-08-09 00:14:00,
2013-08-08 20:17:00,72.7,68.9,29.12,East,97,0.0,6.0,88,0.00,,,0.00,WUHU216DAVISVP2,2013-08-09 00:17:00,
2013-08-08 20:18:00,72.7,68.9,29.13,East,97,1.0,6.0,88,0.00,,,0.00,WUHU216DAVISVP2,2013-08-09 00:18:00,
2013-08-08 20:19:00,72.7,68.9,29.13,East,97,3.0,6.0,88,0.00,,,0.00,WUHU216DAVISVP2,2013-08-09 00:19:00,
2013-08-08 20:23:00,72.7,68.9,29.13,East,83,4.0,5.0,88,0.00,,,0.00,WUHU216DAVISVP2,2013-08-09 00:23:00,
2013-08-08 20:24:00,72.6,68.8,29.13,ESE,120,5.0,5.0,88,0.00,,,0.00,WUHU216DAVISVP2,2013-08-09 00:24:00,
2013-08-08 20:25:00,72.6,68.8,29.13,East,101,2.0,5.0,88,0.00,,,0.00,WUHU216DAVISVP2,2013-08-09 00:25:00,
2013-08-08 20:29:00,72.6,68.8,29.13,East,89,2.0,5.0,88,0.00,,,0.00,WUHU216DAVISVP2,2013-08-09 00:29:00,
2013-08-08 20:30:00,72.6,68.8,29.13,East,89,1.0,5.0,88,0.00,,,0.00,WUHU216DAVISVP2,2013-08-09 00:30:00,
2013-08-08 20:34:00,72.5,68.7,29.13,East,89,3.0,5.0,88,0.00,,,0.00,WUHU216DAVISVP2,2013-08-09 00:34:00,
2013-08-08 20:35:00,72.5,69.1,29.12,East,95,0.0,5.0,89,0.00,,,0.00,WUHU216DAVISVP2,2013-08-09 00:35:00,
2013-08-08 20:40:00,72.4,69.0,29.13,East,95,3.0,5.0,89,0.00,,,0.00,WUHU216DAVISVP2,2013-08-09 00:40:00,
2013-08-08 20:45:00,72.4,69.0,29.12,East,95,0.0,5.0,89,0.00,,,0.00,WUHU216DAVISVP2,2013-08-09 00:45:00,
2013-08-08 20:46:00,72.4,69.0,29.12,East,95,0.0,5.0,89,0.00,,,0.00,WUHU216DAVISVP2,2013-08-09 00:46:00,
2013-08-08 20:47:00,72.4,69.0,29.12,East,95,0.0,4.0,89,0.00,,,0.00,WUHU216DAVISVP2,2013-08-09 00:47:00,
2013-08-08 20:51:00,72.3,68.9,29.12,East,95,1.0,4.0,89,0.00,,,0.00,WUHU216DAVISVP2,2013-08-09 00:51:00,
2013-08-08 20:52:00,72.3,68.9,29.12,East,95,2.0,4.0,89,0.00,,,0.00,WUHU216DAVISVP2,2013-08-09 00:52:00,
2013-08-08 20:53:00,72.3,68.9,29.12,East,95,1.0,4.0,89,0.00,,,0.00,WUHU216DAVISVP2,2013-08-09 00:53:00,
2013-08-08 20:57:00,72.2,68.8,29.12,East,91,0.0,5.0,89,0.00,,,0.00,WUHU216DAVISVP2,2013-08-09 00:57:00,
2013-08-08 20:58:00,72.2,68.8,29.13,East,91,0.0,5.0,89,0.00,,,0.00,WUHU216DAVISVP2,2013-08-09 00:58:00,
2013-08-08 21:02:00,72.2,68.8,29.13,East,91,0.0,5.0,89,0.00,,,0.00,WUHU216DAVISVP2,2013-08-09 01:02:00,
2013-08-08 21:03:00,72.2,68.8,29.13,East,91,2.0,5.0,89,0.00,,,0.00,WUHU216DAVISVP2,2013-08-09 01:03:00,
2013-08-08 21:04:00,72.2,68.8,29.13,East,91,2.0,5.0,89,0.00,,,0.00,WUHU216DAVISVP2,2013-08-09 01:04:00,
2013-08-08 21:07:00,72.1,69.0,29.13,East,91,1.0,5.0,90,0.00,,,0.00,WUHU216DAVISVP2,2013-08-09 01:07:00,
2013-08-08 21:08:00,72.1,69.0,29.13,East,91,3.0,5.0,90,0.00,,,0.00,WUHU216DAVISVP2,2013-08-09 01:08:00,
2013-08-08 21:09:00,72.1,69.0,29.13,East,91,2.0,5.0,90,0.00,,,0.00,WUHU216DAVISVP2,2013-08-09 01:09:00,
2013-08-08 21:13:00,72.1,69.0,29.13,East,91,2.0,5.0,90,0.00,,,0.00,WUHU216DAVISVP2,2013-08-09 01:13:00,
2013-08-08 21:14:00,72.1,69.0,29.13,East,91,1.0,5.0,90,0.00,,,0.00,WUHU216DAVISVP2,2013-08-09 01:14:00,
2013-08-08 21:18:00,72.1,69.0,29.13,East,91,3.0,5.0,90,0.00,,,0.00,WUHU216DAVISVP2,2013-08-09 01:18:00,
2013-08-08 21:19:00,72.1,69.0,29.13,East,91,4.0,5.0,90,0.00,,,0.00,WUHU216DAVISVP2,2013-08-09 01:19:00,
2013-08-08 21:23:00,72.0,68.9,29.13,East,81,2.0,5.0,90,0.00,,,0.00,WUHU216DAVISVP2,2013-08-09 01:23:00,
2013-08-08 21:24:00,72.0,68.9,29.13,East,81,1.0,5.0,90,0.00,,,0.00,WUHU216DAVISVP2,2013-08-09 01:24:00,
2013-08-08 21:28:00,72.0,68.9,29.13,ESE,114,2.0,5.0,90,0.00,,,0.00,WUHU216DAVISVP2,2013-08-09 01:28:00,
2013-08-08 21:30:00,71.9,68.8,29.13,ESE,114,2.0,5.0,90,0.00,,,0.00,WUHU216DAVISVP2,2013-08-09 01:30:00,
2013-08-08 21:34:00,71.9,68.8,29.13,ESE,116,0.0,5.0,90,0.00,,,0.00,WUHU216DAVISVP2,2013-08-09 01:34:00,
2013-08-08 21:35:00,71.9,68.8,29.13,ESE,116,0.0,5.0,90,0.00,,,0.00,WUHU216DAVISVP2,2013-08-09 01:35:00,
2013-08-08 21:36:00,71.9,68.8,29.13,ESE,117,0.0,5.0,90,0.00,,,0.00,WUHU216DAVISVP2,2013-08-09 01:36:00,
2013-08-08 21:39:00,71.8,68.7,29.14,ESE,117,0.0,5.0,90,0.00,,,0.00,WUHU216DAVISVP2,2013-08-09 01:39:00,
2013-08-08 21:40:00,71.8,68.7,29.14,ESE,117,0.0,5.0,90,0.00,,,0.00,WUHU216DAVISVP2,2013-08-09 01:40:00,
2013-08-08 21:41:00,71.8,68.7,29.14,ESE,116,0.0,5.0,90,0.00,,,0.00,WUHU216DAVISVP2,2013-08-09 01:41:00,
2013-08-08 21:44:00,71.7,68.6,29.14,ESE,116,0.0,4.0,90,0.00,,,0.00,WUHU216DAVISVP2,2013-08-09 01:44:00,
2013-08-08 21:46:00,71.7,68.6,29.14,ESE,116,1.0,4.0,90,0.00,,,0.00,WUHU216DAVISVP2,2013-08-09 01:46:00,
2013-08-08 21:49:00,71.6,68.8,29.14,ESE,116,0.0,4.0,91,0.00,,,0.00,WUHU216DAVISVP2,2013-08-09 01:49:00,
2013-08-08 21:51:00,71.6,68.8,29.14,ESE,117,0.0,4.0,91,0.00,,,0.00,WUHU216DAVISVP2,2013-08-09 01:51:00,
2013-08-08 21:52:00,71.6,68.8,29.14,ESE,116,0.0,2.0,91,0.00,,,0.00,WUHU216DAVISVP2,2013-08-09 01:52:00,
2013-08-08 21:54:00,71.7,68.9,29.14,ESE,116,0.0,2.0,91,0.00,,,0.00,WUHU216DAVISVP2,2013-08-09 01:54:00,
2013-08-08 21:56:00,71.7,68.9,29.14,ESE,116,0.0,2.0,91,0.00,,,0.00,WUHU216DAVISVP2,2013-08-09 01:56:00,
2013-08-08 21:57:00,71.7,68.9,29.14,ESE,116,0.0,2.0,91,0.00,,,0.00,WUHU216DAVISVP2,2013-08-09 01:57:00,
2013-08-08 21:58:00,71.7,68.9,29.14,ESE,116,0.0,2.0,91,0.00,,,0.00,WUHU216DAVISVP2,2013-08-09 01:58:00,
2013-08-08 22:01:00,71.7,68.9,29.14,ESE,116,0.0,2.0,91,0.00,,,0.00,WUHU216DAVISVP2,2013-08-09 02:01:00,
2013-08-08 22:02:00,71.7,68.9,29.15,ESE,117,0.0,2.0,91,0.00,,,0.00,WUHU216DAVISVP2,2013-08-09 02:02:00,
2013-08-08 22:03:00,71.6,68.8,29.15,ESE,116,0.0,1.0,91,0.00,,,0.00,WUHU216DAVISVP2,2013-08-09 02:03:00,
2013-08-08 22:06:00,71.6,68.8,29.15,ESE,117,0.0,1.0,91,0.00,,,0.00,WUHU216DAVISVP2,2013-08-09 02:06:00,
2013-08-08 22:07:00,71.6,68.8,29.15,ESE,117,0.0,1.0,91,0.00,,,0.00,WUHU216DAVISVP2,2013-08-09 02:07:00,
2013-08-08 22:08:00,71.6,68.8,29.15,ESE,116,0.0,1.0,91,0.00,,,0.00,WUHU216DAVISVP2,2013-08-09 02:08:00,
2013-08-08 22:09:00,71.6,68.8,29.15,ESE,116,0.0,1.0,91,0.00,,,0.00,WUHU216DAVISVP2,2013-08-09 02:09:00,
2013-08-08 22:12:00,71.6,68.8,29.15,ESE,117,0.0,1.0,91,0.00,,,0.00,WUHU216DAVISVP2,2013-08-09 02:12:00,
2013-08-08 22:13:00,71.6,68.8,29.15,ESE,117,0.0,1.0,91,0.00,,,0.00,WUHU216DAVISVP2,2013-08-09 02:13:00,
2013-08-08 22:15:00,71.6,68.8,29.15,ESE,116,0.0,1.0,91,0.00,,,0.00,WUHU216DAVISVP2,2013-08-09 02:15:00,
2013-08-08 22:18:00,71.6,68.8,29.15,ESE,116,0.0,1.0,91,0.00,,,0.00,WUHU216DAVISVP2,2013-08-09 02:18:00,
2013-08-08 22:19:00,71.6,68.8,29.15,ESE,116,0.0,1.0,91,0.00,,,0.00,WUHU216DAVISVP2,2013-08-09 02:19:00,
2013-08-08 22:21:00,71.6,68.8,29.15,ESE,117,0.0,1.0,91,0.00,,,0.00,WUHU216DAVISVP2,2013-08-09 02:21:00,
2013-08-08 22:23:00,71.6,68.8,29.15,ESE,117,0.0,1.0,91,0.00,,,0.00,WUHU216DAVISVP2,2013-08-09 02:23:00,
2013-08-08 22:24:00,71.6,68.8,29.15,ESE,116,0.0,1.0,91,0.00,,,0.00,WUHU216DAVISVP2,2013-08-09 02:24:00,
2013-08-08 22:26:00,71.7,68.9,29.15,ESE,116,2.0,2.0,91,0.00,,,0.00,WUHU216DAVISVP2,2013-08-09 02:26:00,
2013-08-08 22:29:00,71.6,68.8,29.15,ESE,116,1.0,2.0,91,0.00,,,0.00,WUHU216DAVISVP2,2013-08-09 02:29:00,
2013-08-08 22:31:00,71.6,68.8,29.15,ESE,116,2.0,4.0,91,0.00,,,0.00,WUHU216DAVISVP2,2013-08-09 02:31:00,
2013-08-08 22:34:00,71.6,68.8,29.15,East,93,3.0,4.0,91,0.00,,,0.00,WUHU216DAVISVP2,2013-08-09 02:34:00,
2013-08-08 22:35:00,71.6,68.8,29.15,East,93,2.0,4.0,91,0.00,,,0.00,WUHU216DAVISVP2,2013-08-09 02:35:00,
2013-08-08 22:36:00,71.6,68.8,29.15,East,93,1.0,4.0,91,0.00,,,0.00,WUHU216DAVISVP2,2013-08-09 02:36:00,
2013-08-08 22:39:00,71.6,68.8,29.15,East,93,1.0,4.0,91,0.00,,,0.00,WUHU216DAVISVP2,2013-08-09 02:39:00,
2013-08-08 22:41:00,71.6,68.8,29.15,East,93,0.0,4.0,91,0.00,,,0.00,WUHU216DAVISVP2,2013-08-09 02:41:00,
2013-08-08 22:42:00,71.5,68.7,29.15,East,93,0.0,4.0,91,0.00,,,0.00,WUHU216DAVISVP2,2013-08-09 02:42:00,
2013-08-08 22:44:00,71.5,68.7,29.14,East,93,1.0,4.0,91,0.00,,,0.00,WUHU216DAVISVP2,2013-08-09 02:44:00,
2013-08-08 22:46:00,71.5,68.7,29.14,East,93,1.0,4.0,91,0.00,,,0.00,WUHU216DAVISVP2,2013-08-09 02:46:00,
2013-08-08 22:47:00,71.5,68.7,29.15,East,93,1.0,4.0,91,0.00,,,0.00,WUHU216DAVISVP2,2013-08-09 02:47:00,
2013-08-08 22:50:00,71.5,68.7,29.15,East,93,0.0,4.0,91,0.00,,,0.00,WUHU216DAVISVP2,2013-08-09 02:50:00,
2013-08-08 22:52:00,71.5,68.7,29.15,East,93,2.0,4.0,91,0.00,,,0.00,WUHU216DAVISVP2,2013-08-09 02:52:00,
2013-08-08 22:55:00,71.4,68.6,29.14,East,93,1.0,4.0,91,0.00,,,0.00,WUHU216DAVISVP2,2013-08-09 02:55:00,
2013-08-08 22:56:00,71.4,68.6,29.14,East,93,0.0,4.0,91,0.00,,,0.00,WUHU216DAVISVP2,2013-08-09 02:56:00,
2013-08-08 22:57:00,71.4,68.6,29.15,East,93,1.0,5.0,91,0.00,,,0.00,WUHU216DAVISVP2,2013-08-09 02:57:00,
2013-08-08 23:01:00,71.3,68.8,29.14,East,93,2.0,5.0,92,0.00,,,0.00,WUHU216DAVISVP2,2013-08-09 03:01:00,
2013-08-08 23:02:00,71.3,68.8,29.14,East,93,3.0,5.0,92,0.00,,,0.00,WUHU216DAVISVP2,2013-08-09 03:02:00,
2013-08-08 23:03:00,71.3,68.8,29.14,East,93,4.0,5.0,92,0.00,,,0.00,WUHU216DAVISVP2,2013-08-09 03:03:00,
2013-08-08 23:06:00,71.3,68.8,29.14,East,98,1.0,5.0,92,0.00,,,0.00,WUHU216DAVISVP2,2013-08-09 03:06:00,
2013-08-08 23:07:00,71.3,68.8,29.14,East,98,4.0,5.0,92,0.00,,,0.00,WUHU216DAVISVP2,2013-08-09 03:07:00,
2013-08-08 23:08:00,71.3,68.8,29.14,East,98,1.0,5.0,92,0.00,,,0.00,WUHU216DAVISVP2,2013-08-09 03:08:00,
2013-08-08 23:11:00,71.2,68.7,29.14,East,98,0.0,5.0,92,0.00,,,0.00,WUHU216DAVISVP2,2013-08-09 03:11:00,
2013-08-08 23:12:00,71.2,68.7,29.14,East,98,1.0,5.0,92,0.00,,,0.00,WUHU216DAVISVP2,2013-08-09 03:12:00,
2013-08-08 23:13:00,71.2,68.7,29.14,East,98,0.0,5.0,92,0.00,,,0.00,WUHU216DAVISVP2,2013-08-09 03:13:00,
2013-08-08 23:16:00,71.1,68.6,29.14,East,98,0.0,5.0,92,0.00,,,0.00,WUHU216DAVISVP2,2013-08-09 03:16:00,
2013-08-08 23:17:00,71.1,68.6,29.14,East,98,1.0,5.0,92,0.00,,,0.00,WUHU216DAVISVP2,2013-08-09 03:17:00,
2013-08-08 23:18:00,71.0,68.5,29.14,East,98,0.0,5.0,92,0.00,,,0.00,WUHU216DAVISVP2,2013-08-09 03:18:00,
2013-08-08 23:19:00,71.1,68.6,29.14,East,98,0.0,5.0,92,0.00,,,0.00,WUHU216DAVISVP2,2013-08-09 03:19:00,
2013-08-08 23:22:00,71.0,68.5,29.14,East,98,1.0,5.0,92,0.00,,,0.00,WUHU216DAVISVP2,2013-08-09 03:22:00,
2013-08-08 23:23:00,71.0,68.5,29.14,East,98,1.0,5.0,92,0.00,,,0.00,WUHU216DAVISVP2,2013-08-09 03:23:00,
2013-08-08 23:24:00,71.0,68.5,29.14,East,98,3.0,5.0,92,0.00,,,0.00,WUHU216DAVISVP2,2013-08-09 03:24:00,
2013-08-08 23:27:00,70.9,68.4,29.14,East,98,1.0,4.0,92,0.00,,,0.00,WUHU216DAVISVP2,2013-08-09 03:27:00,
2013-08-08 23:28:00,70.9,68.4,29.14,East,98,1.0,4.0,92,0.00,,,0.00,WUHU216DAVISVP2,2013-08-09 03:28:00,
2013-08-08 23:29:00,70.9,68.4,29.14,East,98,0.0,4.0,92,0.00,,,0.00,WUHU216DAVISVP2,2013-08-09 03:29:00,
2013-08-08 23:30:00,70.9,68.4,29.14,East,98,0.0,4.0,92,0.00,,,0.00,WUHU216DAVISVP2,2013-08-09 03:30:00,
2013-08-08 23:33:00,70.8,68.3,29.15,East,98,1.0,4.0,92,0.00,,,0.00,WUHU216DAVISVP2,2013-08-09 03:33:00,
2013-08-08 23:34:00,70.8,68.3,29.15,East,98,2.0,4.0,92,0.00,,,0.00,WUHU216DAVISVP2,2013-08-09 03:34:00,
2013-08-08 23:36:00,70.8,68.3,29.14,East,98,0.0,4.0,92,0.00,,,0.00,WUHU216DAVISVP2,2013-08-09 03:36:00,
2013-08-08 23:38:00,70.8,68.3,29.14,East,98,1.0,4.0,92,0.00,,,0.00,WUHU216DAVISVP2,2013-08-09 03:38:00,
2013-08-08 23:39:00,70.8,68.3,29.14,East,98,1.0,4.0,92,0.00,,,0.00,WUHU216DAVISVP2,2013-08-09 03:39:00,
2013-08-08 23:41:00,70.7,68.5,29.14,East,98,0.0,4.0,93,0.00,,,0.00,WUHU216DAVISVP2,2013-08-09 03:41:00,
2013-08-08 23:43:00,70.7,68.5,29.14,East,98,0.0,4.0,93,0.00,,,0.00,WUHU216DAVISVP2,2013-08-09 03:43:00,
2013-08-08 23:45:00,70.7,68.5,29.14,East,98,1.0,4.0,93,0.00,,,0.00,WUHU216DAVISVP2,2013-08-09 03:45:00,
2013-08-08 23:47:00,70.7,68.5,29.14,East,98,0.0,2.0,93,0.00,,,0.00,WUHU216DAVISVP2,2013-08-09 03:47:00,
2013-08-08 23:48:00,70.7,68.5,29.13,East,98,0.0,2.0,93,0.00,,,0.00,WUHU216DAVISVP2,2013-08-09 03:48:00,
2013-08-08 23:50:00,70.7,68.5,29.13,East,98,0.0,2.0,93,0.00,,,0.00,WUHU216DAVISVP2,2013-08-09 03:50:00,
2013-08-08 23:52:00,70.6,68.4,29.13,East,98,0.0,2.0,93,0.00,,,0.00,WUHU216DAVISVP2,2013-08-09 03:52:00,
2013-08-08 23:54:00,70.6,68.4,29.13,East,98,1.0,2.0,93,0.00,,,0.00,WUHU216DAVISVP2,2013-08-09 03:54:00,
2013-08-08 23:56:00,70.6,68.4,29.13,East,98,1.0,2.0,93,0.00,,,0.00,WUHU216DAVISVP2,2013-08-09 03:56:00,
2013-08-08 23:57:00,70.5,68.3,29.13,East,98,1.0,2.0,93,0.00,,,0.00,WUHU216DAVISVP2,2013-08-09 03:57:00,